FW4143 Weather Reports


time (UTC)temp
C
wind
direction
speed
KPH
gust
KPH
rain 1hr
cm
rain 24hr
cm
rain mn
cm
humidity
%
barometer
mb
20260901044704 30 18 4.8 11.3 0.00 0.00 0.00 17 1015.5
20260901044604 30 11 4.8 11.3 0.00 0.00 0.00 17 1015.5
20260901044506 30 7 4.8 11.3 0.00 0.00 0.00 18 1015.6
20260901044404 30 1 4.8 11.3 0.00 0.00 0.00 18 1015.5
20260901044304 30 353 4.8 11.3 0.00 0.00 0.00 19 1015.5
20260901044204 30 347 4.8 11.3 0.00 0.00 0.00 19 1015.6
20260901044104 30 348 4.8 11.3 0.00 0.00 0.00 20 1015.5
20260901044004 30 356 4.8 11.3 0.00 0.00 0.00 20 1015.5
20260901043904 30 357 4.8 11.3 0.00 0.00 0.00 20 1015.5
20260901043804 30 351 4.8 11.3 0.00 0.00 0.00 21 1015.5
20260901043704 30 347 4.8 11.3 0.00 0.00 0.00 21 1015.5
20260901043604 30 348 4.8 11.3 0.00 0.00 0.00 21 1015.5
20260901043525 30 347 4.8 11.3 0.00 0.00 0.00 21 1015.6
20260901043404 30 341 4.8 11.3 0.00 0.00 0.00 22 1015.5
20260901043304 30 342 4.8 11.3 0.00 0.00 0.00 22 1015.5
20260901043204 30 343 4.8 11.3 0.00 0.00 0.00 22 1015.6
20260901043125 30 344 4.8 11.3 0.00 0.00 0.00 23 1015.6
20260901043004 30 339 4.8 11.3 0.00 0.00 0.00 23 1015.6
20260901042904 30 332 4.8 11.3 0.00 0.00 0.00 23 1015.6
20260901042804 30 330 4.8 11.3 0.00 0.00 0.00 24 1015.5
20260901042704 30 329 6.4 11.3 0.00 0.00 0.00 24 1015.5
20260901042604 30 329 6.4 11.3 0.00 0.00 0.00 24 1015.5
20260901042504 30 331 6.4 11.3 0.00 0.00 0.00 24 1015.5
20260901042404 30 331 6.4 12.9 0.00 0.00 0.00 25 1015.5
20260901042306 30 328 6.4 17.7 0.00 0.00 0.00 25 1015.5
20260901042204 30 325 6.4 17.7 0.00 0.00 0.00 25 1015.5
20260901042125 30 327 6.4 17.7 0.00 0.00 0.00 25 1015.5
20260901042004 30 321 6.4 17.7 0.00 0.00 0.00 26 1015.4
20260901041904 30 323 6.4 17.7 0.00 0.00 0.00 26 1015.4
20260901041804 30 323 6.4 17.7 0.00 0.00 0.00 27 1015.4
20260901041704 30 322 6.4 17.7 0.00 0.00 0.00 27 1015.3
20260901041625 30 323 6.4 17.7 0.00 0.00 0.00 27 1015.3
20260901041504 30 316 6.4 17.7 0.00 0.00 0.00 27 1015.4
20260901041404 30 315 6.4 17.7 0.00 0.00 0.00 28 1015.4
20260901041304 30 315 4.8 12.9 0.00 0.00 0.00 28 1015.4
20260901041206 30 314 6.4 16.1 0.00 0.00 0.00 28 1015.4
20260901041104 30 310 6.4 16.1 0.00 0.00 0.00 29 1015.4
20260901041025 30 310 6.4 16.1 0.00 0.00 0.00 29 1015.4
20260901040904 30 309 6.4 16.1 0.00 0.00 0.00 29 1015.4
20260901040804 30 304 6.4 16.1 0.00 0.00 0.00 29 1015.4
20260901040704 30 303 6.4 16.1 0.00 0.00 0.00 30 1015.4
20260901040604 30 299 6.4 16.1 0.00 0.00 0.00 30 1015.4
20260901040525 30 300 6.4 16.1 0.00 0.00 0.00 31 1015.4
20260901040404 30 299 6.4 16.1 0.00 0.00 0.00 31 1015.5
20260901040304 30 302 6.4 16.1 0.00 0.00 0.00 31 1015.4
20260901040204 30 306 6.4 14.5 0.00 0.00 0.00 32 1015.5
20260901040125 30 308 6.4 14.5 0.00 0.00 0.00 32 1015.4
20260901040004 30 311 6.4 14.5 0.00 0.00 0.00 32 1015.5
20260901035904 30 308 6.4 12.9 0.00 0.00 0.00 33 1015.5
20260901035804 30 311 6.4 12.9 0.00 0.00 0.00 33 1015.4
20260901035704 30 312 6.4 12.9 0.00 0.00 0.00 33 1015.5
20260901035604 30 316 6.4 12.9 0.00 0.00 0.00 33 1015.5
20260901035504 30 316 6.4 12.9 0.00 0.00 0.00 34 1015.5
20260901035425 30 317 6.4 12.9 0.00 0.00 0.00 34 1015.4
20260901035306 30 318 6.4 12.9 0.00 0.00 0.00 35 1015.4
20260901035204 30 316 6.4 12.9 0.00 0.00 0.00 35 1015.4
20260901035104 30 314 6.4 12.9 0.00 0.00 0.00 35 1015.4
20260901035004 30 319 6.4 12.9 0.00 0.00 0.00 36 1015.4
20260901034904 30 320 6.4 12.9 0.00 0.00 0.00 36 1015.3
20260901034804 30 319 6.4 12.9 0.00 0.00 0.00 36 1015.4
20260901034704 30 319 6.4 12.9 0.00 0.00 0.00 37 1015.4
20260901034604 30 318 6.4 12.9 0.00 0.00 0.00 37 1015.4
20260901034525 30 319 6.4 14.5 0.00 0.00 0.00 37 1015.4
20260901034404 30 322 6.4 14.5 0.00 0.00 0.00 38 1015.4
20260901034325 30 320 6.4 14.5 0.00 0.00 0.00 38 1015.3
20260901034205 30 322 6.4 14.5 0.00 0.00 0.00 38 1015.4
20260901034104 30 322 6.4 14.5 0.00 0.00 0.00 39 1015.4
20260901034004 30 320 4.8 14.5 0.00 0.00 0.00 39 1015.4
20260901033904 30 322 4.8 14.5 0.00 0.00 0.00 39 1015.4
20260901033804 30 324 4.8 14.5 0.00 0.00 0.00 40 1015.4
20260901033704 30 323 4.8 14.5 0.00 0.00 0.00 40 1015.4
20260901033604 30 323 4.8 14.5 0.00 0.00 0.00 40 1015.4
20260901033525 30 323 4.8 14.5 0.00 0.00 0.00 40 1015.4
20260901033404 30 320 4.8 14.5 0.00 0.00 0.00 41 1015.5
20260901033304 30 321 4.8 14.5 0.00 0.00 0.00 41 1015.4
20260901033204 30 320 4.8 14.5 0.00 0.00 0.00 41 1015.4
20260901033104 30 318 4.8 14.5 0.00 0.00 0.00 42 1015.4
20260901033025 30 319 6.4 14.5 0.00 0.00 0.00 42 1015.4
20260901032925 31 316 6.4 14.5 0.00 0.00 0.00 42 1015.4
20260901032804 31 309 4.8 14.5 0.00 0.00 0.00 42 1015.4
20260901032704 31 309 6.4 14.5 0.00 0.00 0.00 42 1015.4
20260901032604 31 313 6.4 14.5 0.00 0.00 0.00 43 1015.4
20260901032504 31 311 6.4 14.5 0.00 0.00 0.00 43 1015.4
20260901032404 31 314 6.4 16.1 0.00 0.00 0.00 43 1015.4
20260901032325 31 314 6.4 16.1 0.00 0.00 0.00 43 1015.4
20260901032204 31 309 6.4 16.1 0.00 0.00 0.00 44 1015.4
20260901032104 31 310 6.4 16.1 0.00 0.00 0.00 44 1015.4
20260901032004 31 312 4.8 16.1 0.00 0.00 0.00 44 1015.3
20260901031925 31 318 6.4 16.1 0.00 0.00 0.00 44 1015.3
20260901031804 31 325 6.4 16.1 0.00 0.00 0.00 45 1015.3
20260901031725 31 328 4.8 16.1 0.00 0.00 0.00 45 1015.3
20260901031604 31 331 4.8 16.1 0.00 0.00 0.00 45 1015.3
20260901031504 31 332 4.8 16.1 0.00 0.00 0.00 45 1015.3
20260901031425 31 327 4.8 14.5 0.00 0.00 0.00 46 1015.3
20260901031304 31 334 4.8 12.9 0.00 0.00 0.00 46 1015.3
20260901031204 31 336 4.8 12.9 0.00 0.00 0.00 46 1015.2
20260901031104 31 335 4.8 12.9 0.00 0.00 0.00 46 1015.2
20260901031004 31 330 4.8 12.9 0.00 0.00 0.00 46 1015.3
20260901030904 31 326 4.8 12.9 0.00 0.00 0.00 47 1015.2
20260901030804 31 323 4.8 12.9 0.00 0.00 0.00 47 1015.2
20260901030725 31 319 4.8 12.9 0.00 0.00 0.00 47 1015.2
20260901030604 31 315 4.8 12.9 0.00 0.00 0.00 47 1015.1
20260901030506 31 317 4.8 12.9 0.00 0.00 0.00 47 1015.1
20260901030404 31 319 6.4 12.9 0.00 0.00 0.00 47 1015.1
20260901030304 31 316 6.4 12.9 0.00 0.00 0.00 48 1015.0
20260901030204 31 312 6.4 12.9 0.00 0.00 0.00 48 1015.1
20260901030125 31 311 6.4 14.5 0.00 0.00 0.00 48 1015.1
20260901030004 31 312 6.4 14.5 0.00 0.00 0.00 48 1015.0
20260901025904 31 309 6.4 14.5 0.00 0.00 0.00 48 1015.0
20260901025804 31 307 6.4 14.5 0.00 0.00 0.00 48 1014.9
20260901025704 31 305 4.8 14.5 0.00 0.00 0.00 48 1015.0
20260901025604 31 303 4.8 14.5 0.00 0.00 0.00 48 1015.0
20260901025504 31 303 4.8 14.5 0.00 0.00 0.00 48 1014.9
20260901025404 31 302 4.8 14.5 0.00 0.00 0.00 48 1014.9
20260901025306 31 303 4.8 14.5 0.00 0.00 0.00 48 1014.9
20260901025204 31 306 4.8 14.5 0.00 0.00 0.00 48 1014.9
20260901025104 31 307 4.8 12.9 0.00 0.00 0.00 48 1014.9
20260901025004 31 303 3.2 12.9 0.00 0.00 0.00 48 1014.9
20260901024904 31 301 3.2 12.9 0.00 0.00 0.00 48 1014.9
20260901024825 31 300 3.2 12.9 0.00 0.00 0.00 48 1014.9
20260901024725 31 298 3.2 12.9 0.00 0.00 0.00 48 1014.9
20260901024604 31 296 4.8 12.9 0.00 0.00 0.00 48 1014.9
20260901024525 31 294 3.2 9.7 0.00 0.00 0.00 48 1014.8
20260901024404 31 286 3.2 9.7 0.00 0.00 0.00 48 1014.8
20260901024304 31 283 3.2 9.7 0.00 0.00 0.00 48 1014.7
20260901024204 31 277 3.2 9.7 0.00 0.00 0.00 47 1014.7
20260901024128 31 275 3.2 8.0 0.00 0.00 0.00 47 1014.7
20260901024004 31 270 3.2 8.0 0.00 0.00 0.00 47 1014.7
20260901023907 31 268 3.2 8.0 0.00 0.00 0.00 47 1014.7
20260901023804 31 266 3.2 8.0 0.00 0.00 0.00 47 1014.7
20260901023704 31 263 3.2 8.0 0.00 0.00 0.00 47 1014.6
20260901023604 31 261 3.2 8.0 0.00 0.00 0.00 47 1014.6
20260901023525 31 260 3.2 8.0 0.00 0.00 0.00 47 1014.6
20260901023404 31 257 3.2 8.0 0.00 0.00 0.00 46 1014.6
20260901023304 31 255 3.2 8.0 0.00 0.00 0.00 46 1014.5
20260901023204 31 253 3.2 8.0 0.00 0.00 0.00 46 1014.5
20260901023104 31 251 3.2 8.0 0.00 0.00 0.00 46 1014.5
20260901023004 31 250 3.2 8.0 0.00 0.00 0.00 46 1014.5
20260901022904 31 249 3.2 8.0 0.00 0.00 0.00 46 1014.5
20260901022825 31 249 3.2 8.0 0.00 0.00 0.00 46 1014.4
20260901022725 31 249 3.2 8.0 0.00 0.00 0.00 45 1014.4
20260901022604 31 249 3.2 8.0 0.00 0.00 0.00 45 1014.4
20260901022504 31 249 3.2 8.0 0.00 0.00 0.00 45 1014.3
20260901022404 31 248 3.2 6.4 0.00 0.00 0.00 45 1014.3
20260901022325 31 248 1.6 6.4 0.00 0.00 0.00 45 1014.3
20260901022206 31 248 1.6 6.4 0.00 0.00 0.00 45 1014.3
20260901022104 31 248 1.6 6.4 0.00 0.00 0.00 44 1014.3
20260901022004 31 248 1.6 6.4 0.00 0.00 0.00 44 1014.3
20260901021904 31 248 1.6 6.4 0.00 0.00 0.00 44 1014.2
20260901021804 31 248 1.6 6.4 0.00 0.00 0.00 44 1014.2
20260901021725 31 248 1.6 6.4 0.00 0.00 0.00 44 1014.2
20260901021604 31 248 1.6 6.4 0.00 0.00 0.00 44 1014.2
20260901021504 31 248 1.6 6.4 0.00 0.00 0.00 44 1014.3
20260901021404 31 248 1.6 6.4 0.00 0.00 0.00 44 1014.2
20260901021304 31 247 1.6 6.4 0.00 0.00 0.00 44 1014.2
20260901021204 31 247 3.2 6.4 0.00 0.00 0.00 44 1014.2
20260901021104 31 247 3.2 6.4 0.00 0.00 0.00 44 1014.2
20260901021004 31 247 1.6 6.4 0.00 0.00 0.00 44 1014.1
20260901020904 32 246 1.6 6.4 0.00 0.00 0.00 44 1014.1
20260901020804 32 246 1.6 6.4 0.00 0.00 0.00 44 1014.1
20260901020704 32 246 1.6 6.4 0.00 0.00 0.00 43 1014.1
20260901020605 32 245 1.6 6.4 0.00 0.00 0.00 43 1014.1
20260901020504 32 245 1.6 4.8 0.00 0.00 0.00 43 1014.0
20260901020404 32 245 1.6 6.4 0.00 0.00 0.00 43 1014.1
20260901020304 32 245 1.6 6.4 0.00 0.00 0.00 43 1014.1
20260901020204 32 245 1.6 6.4 0.00 0.00 0.00 43 1014.0
20260901020104 32 245 1.6 6.4 0.00 0.00 0.00 43 1014.0
20260901020004 32 245 3.2 6.4 0.00 0.00 0.00 43 1014.0
20260901015904 32 245 1.6 6.4 0.00 0.00 0.00 43 1014.0
20260901015804 32 245 1.6 6.4 0.00 0.00 0.00 43 1013.9
20260901015704 32 245 1.6 6.4 0.00 0.00 0.00 43 1013.9
20260901015604 32 245 1.6 6.4 0.00 0.00 0.00 43 1013.9
20260901015504 32 245 1.6 6.4 0.00 0.00 0.00 43 1013.9
20260901015404 32 245 1.6 4.8 0.00 0.00 0.00 43 1013.9
20260901015305 32 246 1.6 4.8 0.00 0.00 0.00 42 1013.9
20260901015204 32 246 1.6 4.8 0.00 0.00 0.00 42 1013.9
20260901015104 32 246 1.6 4.8 0.00 0.00 0.00 42 1013.9
20260901015004 32 246 1.6 4.8 0.00 0.00 0.00 42 1013.9
20260901014904 32 246 1.6 4.8 0.00 0.00 0.00 42 1013.8
20260901014804 32 246 3.2 6.4 0.00 0.00 0.00 42 1013.8
20260901014704 32 246 3.2 8.0 0.00 0.00 0.00 42 1013.8
20260901014625 32 246 3.2 8.0 0.00 0.00 0.00 42 1013.8
20260901014525 32 246 3.2 8.0 0.00 0.00 0.00 42 1013.8
20260901014404 32 245 3.2 8.0 0.00 0.00 0.00 42 1013.8
20260901014304 32 246 3.2 8.0 0.00 0.00 0.00 42 1013.8
20260901014225 32 246 3.2 8.0 0.00 0.00 0.00 42 1013.8
20260901014104 32 246 3.2 8.0 0.00 0.00 0.00 41 1013.8
20260901014004 32 246 3.2 8.0 0.00 0.00 0.00 41 1013.8
20260901013904 32 246 3.2 8.0 0.00 0.00 0.00 41 1013.8
20260901013804 32 246 3.2 8.0 0.00 0.00 0.00 41 1013.9
20260901013725 32 246 3.2 8.0 0.00 0.00 0.00 41 1013.8
20260901013625 32 246 3.2 8.0 0.00 0.00 0.00 41 1013.8
20260901013504 32 246 1.6 8.0 0.00 0.00 0.00 41 1013.8
20260901013404 33 246 1.6 8.0 0.00 0.00 0.00 41 1013.9
20260901013304 33 246 1.6 8.0 0.00 0.00 0.00 41 1013.8
20260901013204 33 246 1.6 6.4 0.00 0.00 0.00 41 1013.8
20260901013104 33 246 1.6 6.4 0.00 0.00 0.00 41 1013.8
20260901013004 33 246 3.2 8.0 0.00 0.00 0.00 41 1013.8
20260901012904 33 246 3.2 8.0 0.00 0.00 0.00 41 1013.7
20260901012825 33 246 3.2 8.0 0.00 0.00 0.00 41 1013.7
20260901012725 33 246 3.2 8.0 0.00 0.00 0.00 41 1013.7
20260901012604 33 246 3.2 8.0 0.00 0.00 0.00 40 1013.8
20260901012525 33 246 3.2 8.0 0.00 0.00 0.00 40 1013.7
20260901012404 33 245 3.2 8.0 0.00 0.00 0.00 40 1013.6
20260901012306 33 245 3.2 8.0 0.00 0.00 0.00 40 1013.6
20260901012204 33 245 3.2 8.0 0.00 0.00 0.00 40 1013.7
20260901012104 33 245 3.2 8.0 0.00 0.00 0.00 40 1013.7
20260901012004 33 245 3.2 6.4 0.00 0.00 0.00 40 1013.6
20260901011904 33 245 3.2 6.4 0.00 0.00 0.00 40 1013.6
20260901011804 33 245 3.2 6.4 0.00 0.00 0.00 40 1013.6
20260901011704 33 245 1.6 6.4 0.00 0.00 0.00 40 1013.5
20260901011604 33 245 1.6 6.4 0.00 0.00 0.00 40 1013.6
20260901011525 33 245 1.6 4.8 0.00 0.00 0.00 40 1013.6
20260901011404 33 245 1.6 4.8 0.00 0.00 0.00 40 1013.5
20260901011304 33 245 1.6 4.8 0.00 0.00 0.00 40 1013.5
20260901011204 33 245 1.6 4.8 0.00 0.00 0.00 40 1013.5
20260901011125 33 245 3.2 4.8 0.00 0.00 0.00 40 1013.5
20260901011004 33 246 3.2 6.4 0.00 0.00 0.00 40 1013.5
20260901010904 33 246 3.2 6.4 0.00 0.00 0.00 40 1013.5
20260901010804 33 246 3.2 6.4 0.00 0.00 0.00 40 1013.5
20260901010704 33 246 3.2 6.4 0.00 0.00 0.00 40 1013.5
20260901010604 33 246 3.2 8.0 0.00 0.00 0.00 40 1013.5
20260901010504 33 247 3.2 8.0 0.00 0.00 0.00 40 1013.4
20260901010404 33 249 3.2 8.0 0.00 0.00 0.00 40 1013.5
20260901010304 33 253 3.2 9.7 0.00 0.00 0.00 39 1013.4
20260901010204 33 260 3.2 9.7 0.00 0.00 0.00 40 1013.4
20260901010104 33 266 3.2 9.7 0.00 0.00 0.00 39 1013.4
20260901010025 33 270 3.2 9.7 0.00 0.00 0.00 40 1013.4
20260901005904 34 281 3.2 9.7 0.00 0.00 0.00 39 1013.4
20260901005804 34 285 3.2 9.7 0.00 0.00 0.00 39 1013.5
20260901005704 34 287 3.2 9.7 0.00 0.00 0.00 39 1013.5
20260901005604 34 290 3.2 9.7 0.00 0.00 0.00 39 1013.4
20260901005504 34 290 3.2 9.7 0.00 0.00 0.00 39 1013.4
20260901005404 34 287 3.2 9.7 0.00 0.00 0.00 39 1013.5
20260901005306 34 284 3.2 8.0 0.00 0.00 0.00 39 1013.5
20260901005225 34 279 3.2 8.0 0.00 0.00 0.00 39 1013.5
20260901005104 34 270 3.2 8.0 0.00 0.00 0.00 39 1013.4
20260901005004 34 264 3.2 8.0 0.00 0.00 0.00 39 1013.4
20260901004904 34 257 3.2 8.0 0.00 0.00 0.00 39 1013.4
20260901004804 34 256 3.2 8.0 0.00 0.00 0.00 39 1013.4
20260901004704 34 256 3.2 8.0 0.00 0.00 0.00 39 1013.4
20260901004604 34 255 3.2 8.0 0.00 0.00 0.00 39 1013.4
20260901004504 35 255 3.2 8.0 0.00 0.00 0.00 39 1013.4
20260901004404 35 255 3.2 8.0 0.00 0.00 0.00 39 1013.4
20260901004304 35 256 3.2 8.0 0.00 0.00 0.00 38 1013.4
20260901004204 35 255 3.2 8.0 0.00 0.00 0.00 38 1013.4
20260901004104 35 255 3.2 8.0 0.00 0.00 0.00 38 1013.4
20260901004025 35 255 3.2 9.7 0.00 0.00 0.00 38 1013.5
20260901003904 35 255 4.8 11.3 0.00 0.00 0.00 38 1013.4
20260901003825 35 254 4.8 11.3 0.00 0.00 0.00 38 1013.4
20260901003704 35 255 4.8 11.3 0.00 0.00 0.00 38 1013.4
20260901003604 35 254 4.8 11.3 0.00 0.00 0.00 38 1013.4
20260901003525 35 255 4.8 11.3 0.00 0.00 0.00 38 1013.4
20260901003404 35 255 6.4 11.3 0.00 0.00 0.00 38 1013.4
20260901003304 35 254 6.4 11.3 0.00 0.00 0.00 38 1013.4
20260901003204 35 256 6.4 12.9 0.00 0.00 0.00 38 1013.4
20260901003104 35 256 6.4 12.9 0.00 0.00 0.00 38 1013.4
20260901003004 35 257 6.4 12.9 0.00 0.00 0.00 38 1013.4
20260901002904 35 258 6.4 12.9 0.00 0.00 0.00 38 1013.5
20260901002804 35 260 4.8 12.9 0.00 0.00 0.00 38 1013.4
20260901002704 35 260 4.8 12.9 0.00 0.00 0.00 38 1013.4
20260901002604 35 262 4.8 12.9 0.00 0.00 0.00 37 1013.4
20260901002504 35 263 4.8 12.9 0.00 0.00 0.00 37 1013.4
20260901002404 35 265 3.2 12.9 0.00 0.00 0.00 37 1013.4
20260901002325 35 267 3.2 12.9 0.00 0.00 0.00 37 1013.4
20260901002204 35 268 3.2 8.0 0.00 0.00 0.00 37 1013.3
20260901002104 35 269 3.2 8.0 0.00 0.00 0.00 37 1013.4
20260901002004 35 271 3.2 6.4 0.00 0.00 0.00 37 1013.3
20260901001904 35 273 3.2 6.4 0.00 0.00 0.00 37 1013.3
20260901001825 35 273 3.2 6.4 0.00 0.00 0.00 37 1013.3
20260901001704 35 275 3.2 11.3 0.00 0.00 0.00 36 1013.3
20260901001604 35 278 3.2 11.3 0.00 0.00 0.00 37 1013.3
20260901001504 35 276 3.2 11.3 0.00 0.00 0.00 36 1013.4
20260901001404 35 273 3.2 11.3 0.00 0.00 0.00 36 1013.3
20260901001304 35 271 4.8 11.3 0.00 0.00 0.00 36 1013.3
20260901001204 35 268 4.8 11.3 0.00 0.00 0.00 36 1013.3
20260901001125 35 267 4.8 11.3 0.00 0.00 0.00 36 1013.3
20260901001004 36 263 4.8 11.3 0.00 0.00 0.00 36 1013.3
20260901000904 36 261 4.8 11.3 0.00 0.00 0.00 36 1013.3
20260901000804 36 259 4.8 11.3 0.00 0.00 0.00 35 1013.2
20260901000704 36 257 4.8 11.3 0.00 0.00 0.00 35 1013.3
20260901000604 36 251 3.2 8.0 0.00 0.00 0.00 35 1013.2
20260901000504 36 250 4.8 11.3 0.00 0.00 0.00 35 1013.3
20260901000425 36 249 4.8 11.3 0.00 0.00 0.00 35 1013.2
20260901000304 36 248 4.8 11.3 0.00 0.00 0.00 35 1013.3
20260901000204 36 248 4.8 11.3 0.00 0.00 0.00 35 1013.3
20260901000106 36 248 4.8 11.3 0.00 0.00 0.00 35 1013.2
20260901000004 36 251 4.8 11.3 0.00 0.00 0.00 36 1013.3
20260831235925 36 252 4.8 11.3 0.00 0.00 0.00 36 1013.2
20260831235804 36 262 4.8 12.9 0.00 0.00 0.00 36 1013.2
20260831235704 36 266 4.8 12.9 0.00 0.00 0.00 35 1013.3
20260831235604 36 270 4.8 12.9 0.00 0.00 0.00 35 1013.2
20260831235504 36 272 4.8 12.9 0.00 0.00 0.00 35 1013.3
20260831235404 36 273 4.8 12.9 0.00 0.00 0.00 35 1013.3
20260831235325 36 274 4.8 12.9 0.00 0.00 0.00 35 1013.3
20260831235204 36 275 4.8 12.9 0.00 0.00 0.00 35 1013.3
20260831235104 36 277 4.8 12.9 0.00 0.00 0.00 35 1013.3
20260831235025 36 274 4.8 12.9 0.00 0.00 0.00 35 1013.3
20260831234904 36 269 4.8 14.5 0.00 0.00 0.00 36 1013.3
20260831234804 36 264 4.8 14.5 0.00 0.00 0.00 35 1013.2
20260831234704 36 263 4.8 14.5 0.00 0.00 0.00 35 1013.3
20260831234604 36 263 4.8 14.5 0.00 0.00 0.00 36 1013.2
20260831234504 36 267 4.8 14.5 0.00 0.00 0.00 36 1013.3
20260831234425 36 270 4.8 14.5 0.00 0.00 0.00 36 1013.3
20260831234304 36 273 4.8 14.5 0.00 0.00 0.00 36 1013.3
20260831234204 36 273 4.8 14.5 0.00 0.00 0.00 36 1013.3
20260831234104 36 274 4.8 14.5 0.00 0.00 0.00 36 1013.3
20260831234004 36 278 4.8 14.5 0.00 0.00 0.00 36 1013.3
20260831233904 36 281 4.8 14.5 0.00 0.00 0.00 36 1013.3
20260831233804 36 282 4.8 14.5 0.00 0.00 0.00 36 1013.3
20260831233704 36 278 4.8 14.5 0.00 0.00 0.00 36 1013.2
20260831233604 36 275 4.8 14.5 0.00 0.00 0.00 36 1013.3
20260831233504 36 274 4.8 14.5 0.00 0.00 0.00 36 1013.2
20260831233406 36 272 4.8 14.5 0.00 0.00 0.00 36 1013.2
20260831233304 35 273 4.8 14.5 0.00 0.00 0.00 36 1013.2
20260831233204 36 275 4.8 14.5 0.00 0.00 0.00 36 1013.2
20260831233104 36 276 4.8 14.5 0.00 0.00 0.00 36 1013.2
20260831233004 36 272 4.8 11.3 0.00 0.00 0.00 36 1013.3
20260831232904 36 271 4.8 11.3 0.00 0.00 0.00 36 1013.2
20260831232825 36 271 4.8 11.3 0.00 0.00 0.00 36 1013.3
20260831232704 36 271 4.8 11.3 0.00 0.00 0.00 36 1013.3
20260831232604 36 270 4.8 11.3 0.00 0.00 0.00 36 1013.3
20260831232504 36 267 4.8 11.3 0.00 0.00 0.00 36 1013.3
20260831232404 36 266 4.8 11.3 0.00 0.00 0.00 36 1013.3
20260831232325 36 263 4.8 11.3 0.00 0.00 0.00 36 1013.3
20260831232204 36 259 4.8 11.3 0.00 0.00 0.00 36 1013.3
20260831232104 36 257 6.4 11.3 0.00 0.00 0.00 35 1013.3
20260831232004 36 256 6.4 11.3 0.00 0.00 0.00 35 1013.3
20260831231904 36 253 6.4 12.9 0.00 0.00 0.00 35 1013.3
20260831231804 36 253 6.4 12.9 0.00 0.00 0.00 35 1013.3
20260831231704 36 253 6.4 12.9 0.00 0.00 0.00 35 1013.3
20260831231625 36 253 6.4 12.9 0.00 0.00 0.00 35 1013.3
20260831231504 36 256 4.8 12.9 0.00 0.00 0.00 34 1013.3
20260831231404 36 257 4.8 12.9 0.00 0.00 0.00 34 1013.3
20260831231304 36 262 4.8 12.9 0.00 0.00 0.00 34 1013.3
20260831231204 36 268 4.8 12.9 0.00 0.00 0.00 35 1013.3
20260831231104 36 270 4.8 12.9 0.00 0.00 0.00 35 1013.3
20260831231004 36 271 6.4 17.7 0.00 0.00 0.00 35 1013.3
20260831230904 36 272 6.4 17.7 0.00 0.00 0.00 35 1013.3
20260831230804 36 272 6.4 17.7 0.00 0.00 0.00 35 1013.3
20260831230704 36 272 6.4 17.7 0.00 0.00 0.00 35 1013.4
20260831230604 36 270 8.0 20.9 0.00 0.00 0.00 35 1013.4
20260831230525 36 268 8.0 20.9 0.00 0.00 0.00 35 1013.3
20260831230404 36 266 8.0 20.9 0.00 0.00 0.00 35 1013.3
20260831230304 36 262 8.0 20.9 0.00 0.00 0.00 35 1013.4
20260831230204 36 259 6.4 20.9 0.00 0.00 0.00 35 1013.4
20260831230104 36 258 6.4 20.9 0.00 0.00 0.00 35 1013.4
20260831230025 36 257 6.4 20.9 0.00 0.00 0.00 35 1013.4
20260831225904 36 256 6.4 20.9 0.00 0.00 0.00 35 1013.4
20260831225825 36 255 4.8 20.9 0.00 0.00 0.00 35 1013.4
20260831225704 36 253 4.8 20.9 0.00 0.00 0.00 35 1013.4
20260831225604 36 252 4.8 9.7 0.00 0.00 0.00 35 1013.4
20260831225504 36 252 4.8 9.7 0.00 0.00 0.00 35 1013.4
20260831225404 36 253 4.8 9.7 0.00 0.00 0.00 35 1013.4
20260831225306 36 253 3.2 9.7 0.00 0.00 0.00 34 1013.4
20260831225204 36 253 4.8 9.7 0.00 0.00 0.00 34 1013.4
20260831225104 36 255 4.8 9.7 0.00 0.00 0.00 34 1013.4
20260831225004 36 259 4.8 12.9 0.00 0.00 0.00 34 1013.4
20260831224925 37 262 4.8 12.9 0.00 0.00 0.00 34 1013.5
20260831224804 37 265 4.8 12.9 0.00 0.00 0.00 34 1013.4
20260831224704 37 268 4.8 12.9 0.00 0.00 0.00 34 1013.4
20260831224604 37 270 4.8 12.9 0.00 0.00 0.00 35 1013.4
20260831224504 37 269 4.8 12.9 0.00 0.00 0.00 35 1013.4
20260831224425 36 270 4.8 12.9 0.00 0.00 0.00 35 1013.4
20260831224304 36 274 4.8 12.9 0.00 0.00 0.00 35 1013.4
20260831224204 36 277 4.8 12.9 0.00 0.00 0.00 35 1013.4
20260831224125 36 280 4.8 12.9 0.00 0.00 0.00 35 1013.4
20260831224004 37 286 4.8 11.3 0.00 0.00 0.00 35 1013.5
20260831223904 37 291 4.8 11.3 0.00 0.00 0.00 35 1013.4
20260831223804 37 308 4.8 11.3 0.00 0.00 0.00 35 1013.4
20260831223704 37 313 4.8 11.3 0.00 0.00 0.00 35 1013.4
20260831223604 37 318 4.8 12.9 0.00 0.00 0.00 35 1013.4
20260831223504 37 320 4.8 14.5 0.00 0.00 0.00 35 1013.4
20260831223404 37 313 4.8 14.5 0.00 0.00 0.00 35 1013.5
20260831223325 37 305 6.4 14.5 0.00 0.00 0.00 35 1013.5
20260831223204 37 293 6.4 14.5 0.00 0.00 0.00 36 1013.5
20260831223104 36 285 6.4 14.5 0.00 0.00 0.00 35 1013.5
20260831223004 36 273 6.4 14.5 0.00 0.00 0.00 35 1013.5
20260831222904 36 264 6.4 14.5 0.00 0.00 0.00 35 1013.5
20260831222804 36 250 6.4 14.5 0.00 0.00 0.00 35 1013.6
20260831222704 36 245 6.4 14.5 0.00 0.00 0.00 36 1013.5
20260831222604 36 239 6.4 14.5 0.00 0.00 0.00 36 1013.6
20260831222504 36 239 8.0 12.9 0.00 0.00 0.00 35 1013.6
20260831222404 36 239 8.0 16.1 0.00 0.00 0.00 35 1013.6
20260831222306 36 239 8.0 16.1 0.00 0.00 0.00 35 1013.6
20260831222204 36 240 6.4 16.1 0.00 0.00 0.00 34 1013.6
20260831222104 36 244 6.4 16.1 0.00 0.00 0.00 35 1013.7
20260831222004 36 248 8.0 16.1 0.00 0.00 0.00 35 1013.7
20260831221904 36 250 8.0 16.1 0.00 0.00 0.00 35 1013.8
20260831221804 36 254 6.4 16.1 0.00 0.00 0.00 34 1013.6
20260831221704 36 257 6.4 16.1 0.00 0.00 0.00 35 1013.7
20260831221604 36 261 6.4 16.1 0.00 0.00 0.00 35 1013.7
20260831221504 36 261 6.4 16.1 0.00 0.00 0.00 35 1013.7
20260831221404 36 263 6.4 16.1 0.00 0.00 0.00 36 1013.6
20260831221304 36 263 6.4 16.1 0.00 0.00 0.00 36 1013.6
20260831221204 36 263 6.4 16.1 0.00 0.00 0.00 35 1013.6
20260831221104 36 263 6.4 16.1 0.00 0.00 0.00 35 1013.6
20260831221004 37 261 6.4 16.1 0.00 0.00 0.00 35 1013.6
20260831220904 37 261 6.4 16.1 0.00 0.00 0.00 35 1013.6
20260831220804 37 258 6.4 16.1 0.00 0.00 0.00 35 1013.6
20260831220725 37 257 6.4 16.1 0.00 0.00 0.00 35 1013.6
20260831220625 37 255 4.8 16.1 0.00 0.00 0.00 35 1013.6
20260831220504 37 252 4.8 12.9 0.00 0.00 0.00 35 1013.6
20260831220404 37 250 4.8 12.9 0.00 0.00 0.00 35 1013.6
20260831220304 37 249 4.8 12.9 0.00 0.00 0.00 35 1013.6
20260831220204 37 252 4.8 9.7 0.00 0.00 0.00 35 1013.6
20260831220104 37 257 4.8 12.9 0.00 0.00 0.00 35 1013.6
20260831220004 37 266 4.8 12.9 0.00 0.00 0.00 35 1013.6
20260831215925 37 274 4.8 12.9 0.00 0.00 0.00 34 1013.6
20260831215804 37 280 4.8 12.9 0.00 0.00 0.00 35 1013.6
20260831215704 37 283 4.8 12.9 0.00 0.00 0.00 35 1013.6
20260831215625 37 286 4.8 12.9 0.00 0.00 0.00 35 1013.6
20260831215504 37 292 4.8 12.9 0.00 0.00 0.00 35 1013.6
20260831215404 37 299 4.8 12.9 0.00 0.00 0.00 34 1013.6
20260831215306 37 294 4.8 12.9 0.00 0.00 0.00 34 1013.7
20260831215225 37 293 4.8 12.9 0.00 0.00 0.00 34 1013.7
20260831215104 37 279 4.8 11.3 0.00 0.00 0.00 35 1013.7
20260831215004 37 270 3.2 11.3 0.00 0.00 0.00 34 1013.8
20260831214904 37 262 3.2 12.9 0.00 0.00 0.00 35 1013.8
20260831214825 37 261 3.2 12.9 0.00 0.00 0.00 34 1013.8
20260831214704 37 259 4.8 12.9 0.00 0.00 0.00 34 1013.8
20260831214625 37 258 4.8 12.9 0.00 0.00 0.00 34 1013.8
20260831214504 37 257 4.8 12.9 0.00 0.00 0.00 34 1013.9
20260831214425 37 253 3.2 12.9 0.00 0.00 0.00 34 1013.9
20260831214325 37 253 3.2 12.9 0.00 0.00 0.00 33 1013.9
20260831214204 37 255 3.2 12.9 0.00 0.00 0.00 32 1013.9
20260831214104 37 257 4.8 12.9 0.00 0.00 0.00 33 1013.9
20260831214004 37 262 4.8 12.9 0.00 0.00 0.00 32 1014.0
20260831213904 37 266 4.8 14.5 0.00 0.00 0.00 33 1014.0
20260831213804 37 274 6.4 14.5 0.00 0.00 0.00 32 1014.0
20260831213725 37 279 6.4 14.5 0.00 0.00 0.00 32 1014.0
20260831213604 37 291 6.4 14.5 0.00 0.00 0.00 33 1014.0
20260831213504 37 305 6.4 14.5 0.00 0.00 0.00 34 1014.0
20260831213404 37 307 6.4 14.5 0.00 0.00 0.00 34 1014.0
20260831213304 37 306 6.4 14.5 0.00 0.00 0.00 33 1014.1
20260831213204 37 305 6.4 14.5 0.00 0.00 0.00 34 1014.1
20260831213104 37 308 6.4 14.5 0.00 0.00 0.00 34 1014.2
20260831213004 37 312 6.4 14.5 0.00 0.00 0.00 34 1014.1
20260831212904 37 313 4.8 14.5 0.00 0.00 0.00 34 1014.1
20260831212825 37 308 4.8 14.5 0.00 0.00 0.00 34 1014.1
20260831212704 37 314 4.8 14.5 0.00 0.00 0.00 34 1014.1
20260831212604 37 309 4.8 16.1 0.00 0.00 0.00 35 1014.1
20260831212504 36 300 4.8 16.1 0.00 0.00 0.00 35 1014.1
20260831212404 36 312 6.4 16.1 0.00 0.00 0.00 35 1014.1
20260831212306 36 317 6.4 16.1 0.00 0.00 0.00 35 1014.0
20260831212204 36 331 6.4 16.1 0.00 0.00 0.00 35 1014.0
20260831212125 36 340 6.4 16.1 0.00 0.00 0.00 35 1014.1
20260831212025 36 349 6.4 16.1 0.00 0.00 0.00 34 1014.1
20260831211904 37 2 6.4 16.1 0.00 0.00 0.00 35 1014.2
20260831211804 36 12 6.4 16.1 0.00 0.00 0.00 35 1014.1
20260831211704 36 15 6.4 17.7 0.00 0.00 0.00 35 1014.2
20260831211604 37 24 6.4 17.7 0.00 0.00 0.00 35 1014.2
20260831211525 37 27 6.4 17.7 0.00 0.00 0.00 35 1014.3
20260831211403 37 32 6.4 17.7 0.00 0.00 0.00 34 1014.2
20260831211304 37 35 6.4 17.7 0.00 0.00 0.00 35 1014.3
20260831211204 37 30 8.0 17.7 0.00 0.00 0.00 35 1014.3
20260831211104 37 20 8.0 17.7 0.00 0.00 0.00 35 1014.3
20260831211004 37 12 6.4 17.7 0.00 0.00 0.00 34 1014.3
20260831210904 37 5 6.4 17.7 0.00 0.00 0.00 34 1014.3
20260831210804 37 352 6.4 17.7 0.00 0.00 0.00 34 1014.4
20260831210704 37 324 6.4 14.5 0.00 0.00 0.00 35 1014.4
20260831210604 37 305 6.4 12.9 0.00 0.00 0.00 34 1014.4
20260831210504 36 288 6.4 12.9 0.00 0.00 0.00 35 1014.4
20260831210403 36 276 6.4 12.9 0.00 0.00 0.00 35 1014.5
20260831210304 36 276 6.4 12.9 0.00 0.00 0.00 35 1014.5
20260831210204 36 276 4.8 12.9 0.00 0.00 0.00 35 1014.5
20260831210104 36 273 4.8 12.9 0.00 0.00 0.00 35 1014.5
20260831210004 36 275 4.8 12.9 0.00 0.00 0.00 35 1014.6
20260831205904 36 278 4.8 12.9 0.00 0.00 0.00 36 1014.6
20260831205804 36 282 4.8 12.9 0.00 0.00 0.00 35 1014.5
20260831205704 36 284 4.8 12.9 0.00 0.00 0.00 35 1014.5
20260831205604 36 284 4.8 12.9 0.00 0.00 0.00 36 1014.6
20260831205504 36 280 4.8 12.9 0.00 0.00 0.00 35 1014.6
20260831205404 36 280 4.8 12.9 0.00 0.00 0.00 35 1014.6
20260831205305 36 276 4.8 12.9 0.00 0.00 0.00 36 1014.6
20260831205204 36 268 4.8 14.5 0.00 0.00 0.00 36 1014.6
20260831205104 36 264 4.8 14.5 0.00 0.00 0.00 36 1014.6
20260831205004 36 265 4.8 14.5 0.00 0.00 0.00 36 1014.7
20260831204904 36 264 6.4 14.5 0.00 0.00 0.00 36 1014.8
20260831204804 36 260 6.4 14.5 0.00 0.00 0.00 36 1014.7
20260831204704 36 260 4.8 14.5 0.00 0.00 0.00 35 1014.8
20260831204604 36 262 4.8 14.5 0.00 0.00 0.00 36 1014.8
20260831204504 36 266 4.8 14.5 0.00 0.00 0.00 36 1014.8
20260831204404 36 264 6.4 14.5 0.00 0.00 0.00 36 1014.8
20260831204304 36 262 6.4 14.5 0.00 0.00 0.00 36 1014.8
20260831204204 36 262 4.8 14.5 0.00 0.00 0.00 35 1014.8
20260831204104 36 263 4.8 14.5 0.00 0.00 0.00 35 1014.9
20260831204025 36 264 4.8 14.5 0.00 0.00 0.00 35 1014.9
20260831203904 36 265 4.8 14.5 0.00 0.00 0.00 35 1014.9
20260831203825 36 268 4.8 14.5 0.00 0.00 0.00 36 1014.9
20260831203704 36 270 4.8 14.5 0.00 0.00 0.00 36 1015.0
20260831203604 36 271 4.8 14.5 0.00 0.00 0.00 35 1015.0
20260831203504 36 274 4.8 14.5 0.00 0.00 0.00 35 1015.1
20260831203404 36 285 4.8 14.5 0.00 0.00 0.00 34 1015.0
20260831203304 36 291 3.2 14.5 0.00 0.00 0.00 37 1015.1
20260831203204 36 296 3.2 14.5 0.00 0.00 0.00 38 1015.0
20260831203104 36 299 3.2 14.5 0.00 0.00 0.00 36 1015.1
20260831203004 36 304 3.2 14.5 0.00 0.00 0.00 36 1015.1
20260831202904 36 313 3.2 14.5 0.00 0.00 0.00 36 1015.1
20260831202825 36 319 3.2 14.5 0.00 0.00 0.00 36 1015.1
20260831202704 36 323 4.8 14.5 0.00 0.00 0.00 36 1015.1
20260831202625 36 325 4.8 14.5 0.00 0.00 0.00 36 1015.2
20260831202504 36 335 4.8 14.5 0.00 0.00 0.00 35 1015.2
20260831202404 36 331 4.8 14.5 0.00 0.00 0.00 35 1015.2
20260831202306 36 330 4.8 14.5 0.00 0.00 0.00 35 1015.2
20260831202225 36 325 4.8 14.5 0.00 0.00 0.00 35 1015.2
20260831202104 36 322 6.4 14.5 0.00 0.00 0.00 35 1015.2
20260831202025 36 322 4.8 14.5 0.00 0.00 0.00 35 1015.2
20260831201904 36 325 4.8 14.5 0.00 0.00 0.00 35 1015.3
20260831201803 36 338 4.8 14.5 0.00 0.00 0.00 35 1015.3
20260831201704 36 355 4.8 14.5 0.00 0.00 0.00 36 1015.3
20260831201625 36 3 4.8 14.5 0.00 0.00 0.00 35 1015.3
20260831201504 36 352 4.8 14.5 0.00 0.00 0.00 36 1015.3
20260831201404 36 1 4.8 14.5 0.00 0.00 0.00 36 1015.4
20260831201304 36 2 4.8 14.5 0.00 0.00 0.00 35 1015.4
20260831201204 37 7 4.8 14.5 0.00 0.00 0.00 35 1015.4
20260831201103 37 6 4.8 14.5 0.00 0.00 0.00 35 1015.4
20260831201003 37 359 6.4 14.5 0.00 0.00 0.00 36 1015.4
20260831200904 36 351 6.4 19.3 0.00 0.00 0.00 35 1015.4
20260831200804 37 347 6.4 19.3 0.00 0.00 0.00 35 1015.4
20260831200704 37 342 6.4 19.3 0.00 0.00 0.00 35 1015.5
20260831200625 37 338 6.4 19.3 0.00 0.00 0.00 35 1015.4
20260831200504 36 331 6.4 19.3 0.00 0.00 0.00 36 1015.5
20260831200404 36 326 6.4 19.3 0.00 0.00 0.00 36 1015.5
20260831200304 36 320 6.4 19.3 0.00 0.00 0.00 36 1015.5
20260831200225 36 312 6.4 19.3 0.00 0.00 0.00 36 1015.5
20260831200104 36 303 6.4 19.3 0.00 0.00 0.00 36 1015.5
20260831200003 36 298 6.4 19.3 0.00 0.00 0.00 36 1015.5
20260831195904 36 292 6.4 17.7 0.00 0.00 0.00 36 1015.5
20260831195804 36 284 6.4 17.7 0.00 0.00 0.00 36 1015.4
20260831195725 36 280 6.4 17.7 0.00 0.00 0.00 36 1015.5
20260831195603 36 281 6.4 17.7 0.00 0.00 0.00 36 1015.6
20260831195504 36 278 6.4 17.7 0.00 0.00 0.00 36 1015.6
20260831195404 36 274 6.4 14.5 0.00 0.00 0.00 36 1015.6
20260831195325 36 280 6.4 14.5 0.00 0.00 0.00 36 1015.6
20260831195225 36 289 6.4 14.5 0.00 0.00 0.00 35 1015.6
20260831195104 36 305 6.4 14.5 0.00 0.00 0.00 35 1015.6
20260831195004 36 316 6.4 14.5 0.00 0.00 0.00 35 1015.7
20260831194904 36 324 6.4 14.5 0.00 0.00 0.00 35 1015.7
20260831194803 36 323 6.4 14.5 0.00 0.00 0.00 35 1015.7
20260831194725 36 324 4.8 14.5 0.00 0.00 0.00 36 1015.7
20260831194604 36 328 4.8 14.5 0.00 0.00 0.00 35 1015.7
20260831194504 36 329 4.8 14.5 0.00 0.00 0.00 35 1015.7
20260831194425 36 328 4.8 14.5 0.00 0.00 0.00 35 1015.7
20260831194303 35 315 4.8 14.5 0.00 0.00 0.00 37 1015.7
20260831194204 35 310 4.8 14.5 0.00 0.00 0.00 37 1015.7
20260831194125 35 302 4.8 14.5 0.00 0.00 0.00 37 1015.7
20260831194004 35 294 4.8 14.5 0.00 0.00 0.00 36 1015.8
20260831193904 35 280 4.8 12.9 0.00 0.00 0.00 37 1015.7
20260831193804 35 289 4.8 12.9 0.00 0.00 0.00 37 1015.7
20260831193703 35 299 4.8 12.9 0.00 0.00 0.00 37 1015.8
20260831193604 35 310 4.8 12.9 0.00 0.00 0.00 37 1015.8
20260831193525 36 320 4.8 12.9 0.00 0.00 0.00 36 1015.9
20260831193425 36 334 4.8 12.9 0.00 0.00 0.00 37 1015.9
20260831193304 35 350 4.8 12.9 0.00 0.00 0.00 37 1015.9
20260831193204 35 359 4.8 12.9 0.00 0.00 0.00 37 1015.9
20260831193125 35 5 4.8 12.9 0.00 0.00 0.00 37 1015.9
20260831193004 35 13 4.8 12.9 0.00 0.00 0.00 37 1015.9
20260831192904 35 14 4.8 12.9 0.00 0.00 0.00 37 1015.9
20260831192803 35 17 4.8 12.9 0.00 0.00 0.00 37 1015.9
20260831192704 35 19 4.8 12.9 0.00 0.00 0.00 36 1015.9
20260831192604 35 14 4.8 12.9 0.00 0.00 0.00 37 1016.0
20260831192504 35 14 4.8 12.9 0.00 0.00 0.00 37 1016.0
20260831192404 36 360 4.8 12.9 0.00 0.00 0.00 36 1016.0
20260831192305 36 339 4.8 12.9 0.00 0.00 0.00 36 1016.0
20260831192204 36 344 4.8 12.9 0.00 0.00 0.00 36 1016.0
20260831192125 36 334 4.8 12.9 0.00 0.00 0.00 36 1016.0
20260831192004 36 314 4.8 11.3 0.00 0.00 0.00 36 1016.0
20260831191904 36 313 4.8 11.3 0.00 0.00 0.00 36 1016.1
20260831191803 36 311 4.8 11.3 0.00 0.00 0.00 36 1016.1
20260831191704 36 312 4.8 11.3 0.00 0.00 0.00 37 1016.1
20260831191625 36 314 4.8 11.3 0.00 0.00 0.00 37 1016.2
20260831191504 35 313 4.8 11.3 0.00 0.00 0.00 37 1016.2
20260831191425 35 313 6.4 14.5 0.00 0.00 0.00 37 1016.2
20260831191325 35 320 6.4 16.1 0.00 0.00 0.00 37 1016.2
20260831191204 35 319 6.4 16.1 0.00 0.00 0.00 37 1016.2
20260831191125 35 330 6.4 16.1 0.00 0.00 0.00 36 1016.2
20260831191025 35 347 6.4 16.1 0.00 0.00 0.00 36 1016.2
20260831190904 35 9 6.4 16.1 0.00 0.00 0.00 37 1016.2
20260831190804 35 23 6.4 16.1 0.00 0.00 0.00 37 1016.2
20260831190704 35 28 8.0 16.1 0.00 0.00 0.00 37 1016.2
20260831190604 35 31 8.0 16.1 0.00 0.00 0.00 37 1016.2
20260831190503 35 36 8.0 16.1 0.00 0.00 0.00 37 1016.3
20260831190404 35 43 8.0 12.9 0.00 0.00 0.00 38 1016.2
20260831190304 35 34 6.4 12.9 0.00 0.00 0.00 37 1016.2
20260831190204 35 27 6.4 12.9 0.00 0.00 0.00 38 1016.2
20260831190104 35 15 6.4 12.9 0.00 0.00 0.00 38 1016.3
20260831190004 35 358 6.4 14.5 0.00 0.00 0.00 37 1016.4
20260831185925 35 354 6.4 14.5 0.00 0.00 0.00 38 1016.4
20260831185825 35 354 6.4 14.5 0.00 0.00 0.00 37 1016.4
20260831185704 35 342 6.4 14.5 0.00 0.00 0.00 37 1016.4
20260831185604 35 322 6.4 14.5 0.00 0.00 0.00 37 1016.4
20260831185504 35 313 6.4 14.5 0.00 0.00 0.00 37 1016.4
20260831185404 35 317 6.4 14.5 0.00 0.00 0.00 37 1016.4
20260831185306 35 323 6.4 14.5 0.00 0.00 0.00 37 1016.4
20260831185203 35 334 6.4 14.5 0.00 0.00 0.00 37 1016.4
20260831185103 35 347 6.4 14.5 0.00 0.00 0.00 37 1016.5
20260831185004 35 6 4.8 11.3 0.00 0.00 0.00 37 1016.4
20260831184903 35 11 4.8 11.3 0.00 0.00 0.00 36 1016.4
20260831184804 35 9 4.8 11.3 0.00 0.00 0.00 36 1016.5
20260831184704 35 15 6.4 11.3 0.00 0.00 0.00 36 1016.5
20260831184604 35 25 6.4 11.3 0.00 0.00 0.00 36 1016.6
20260831184503 35 28 6.4 11.3 0.00 0.00 0.00 36 1016.5
20260831184404 35 32 4.8 11.3 0.00 0.00 0.00 36 1016.5
20260831184304 35 26 6.4 11.3 0.00 0.00 0.00 36 1016.5
20260831184225 35 17 6.4 11.3 0.00 0.00 0.00 36 1016.5
20260831184104 35 352 6.4 12.9 0.00 0.00 0.00 37 1016.5
20260831184003 35 336 6.4 16.1 0.00 0.00 0.00 36 1016.5
20260831183904 35 325 6.4 16.1 0.00 0.00 0.00 36 1016.5
20260831183804 35 318 6.4 16.1 0.00 0.00 0.00 37 1016.5
20260831183704 35 315 6.4 16.1 0.00 0.00 0.00 37 1016.5
20260831183604 35 319 6.4 16.1 0.00 0.00 0.00 37 1016.5
20260831183503 35 320 6.4 16.1 0.00 0.00 0.00 37 1016.6
20260831183404 35 318 6.4 16.1 0.00 0.00 0.00 36 1016.5
20260831183304 35 324 6.4 16.1 0.00 0.00 0.00 36 1016.7
20260831183204 35 331 8.0 16.1 0.00 0.00 0.00 36 1016.7
20260831183103 35 340 8.0 16.1 0.00 0.00 0.00 36 1016.7
20260831183003 35 342 8.0 16.1 0.00 0.00 0.00 36 1016.7
20260831182925 35 345 8.0 16.1 0.00 0.00 0.00 36 1016.7
20260831182803 35 342 8.0 16.1 0.00 0.00 0.00 36 1016.7
20260831182703 35 336 6.4 16.1 0.00 0.00 0.00 36 1016.7
20260831182603 35 325 6.4 16.1 0.00 0.00 0.00 36 1016.7
20260831182504 35 327 6.4 16.1 0.00 0.00 0.00 36 1016.7
20260831182404 35 335 6.4 16.1 0.00 0.00 0.00 36 1016.7
20260831182324 35 340 6.4 14.5 0.00 0.00 0.00 36 1016.7
20260831182204 35 338 6.4 14.5 0.00 0.00 0.00 36 1016.7
20260831182104 35 337 6.4 14.5 0.00 0.00 0.00 35 1016.7
20260831182004 35 340 6.4 17.7 0.00 0.00 0.00 35 1016.7
20260831181903 35 349 6.4 17.7 0.00 0.00 0.00 35 1016.7
20260831181804 35 359 6.4 17.7 0.00 0.00 0.00 35 1016.8
20260831181704 35 12 6.4 17.7 0.00 0.00 0.00 35 1016.8
20260831181604 35 18 6.4 17.7 0.00 0.00 0.00 35 1016.8
20260831181504 35 20 6.4 17.7 0.00 0.00 0.00 35 1016.8
20260831181404 35 14 6.4 17.7 0.00 0.00 0.00 35 1016.7
20260831181303 35 4 6.4 17.7 0.00 0.00 0.00 35 1016.8
20260831181204 35 10 4.8 17.7 0.00 0.00 0.00 35 1016.8
20260831181104 35 15 4.8 17.7 0.00 0.00 0.00 35 1016.8
20260831181003 34 30 4.8 12.9 0.00 0.00 0.00 35 1016.8
20260831180903 34 19 4.8 11.3 0.00 0.00 0.00 35 1016.7
20260831180825 34 3 4.8 11.3 0.00 0.00 0.00 35 1016.8
20260831180725 34 312 3.2 11.3 0.00 0.00 0.00 35 1016.7
20260831180625 34 292 3.2 11.3 0.00 0.00 0.00 35 1016.8
20260831180504 34 309 4.8 11.3 0.00 0.00 0.00 35 1016.8
20260831180404 34 313 4.8 11.3 0.00 0.00 0.00 35 1016.9
20260831180304 34 321 4.8 11.3 0.00 0.00 0.00 35 1016.9
20260831180225 34 319 3.2 11.3 0.00 0.00 0.00 35 1016.9
20260831180125 34 313 4.8 11.3 0.00 0.00 0.00 35 1016.9
20260831180004 34 312 4.8 14.5 0.00 0.00 0.00 35 1016.9
20260831175904 34 314 4.8 17.7 0.00 0.00 0.00 35 1016.9
20260831175803 34 317 4.8 17.7 0.00 0.00 0.00 35 1016.9
20260831175703 34 318 4.8 17.7 0.00 0.00 0.00 35 1017.0
20260831175604 34 318 6.4 17.7 0.00 0.00 0.00 35 1017.0
20260831175504 34 323 6.4 17.7 0.00 0.00 0.00 35 1017.0
20260831175404 34 328 6.4 17.7 0.00 0.00 0.00 35 1017.0
20260831175306 34 331 6.4 17.7 0.00 0.00 0.00 35 1017.0
20260831175203 34 332 6.4 17.7 0.00 0.00 0.00 35 1017.1
20260831175104 34 341 6.4 17.7 0.00 0.00 0.00 35 1017.1
20260831175025 34 343 6.4 17.7 0.00 0.00 0.00 35 1017.1
20260831174904 34 360 6.4 12.9 0.00 0.00 0.00 35 1017.0
20260831174803 34 13 6.4 12.9 0.00 0.00 0.00 34 1017.1
20260831174704 34 17 6.4 12.9 0.00 0.00 0.00 34 1017.2
20260831174603 34 19 4.8 12.9 0.00 0.00 0.00 34 1017.2
20260831174503 34 2 6.4 12.9 0.00 0.00 0.00 33 1017.2
20260831174425 34 351 6.4 12.9 0.00 0.00 0.00 33 1017.2
20260831174325 35 345 6.4 12.9 0.00 0.00 0.00 33 1017.2
20260831174204 34 344 4.8 12.9 0.00 0.00 0.00 33 1017.2
20260831174103 34 331 4.8 12.9 0.00 0.00 0.00 33 1017.3
20260831174004 34 321 4.8 12.9 0.00 0.00 0.00 33 1017.3
20260831173903 34 314 4.8 12.9 0.00 0.00 0.00 33 1017.3
20260831173803 34 304 4.8 12.9 0.00 0.00 0.00 33 1017.3
20260831173704 34 301 4.8 12.9 0.00 0.00 0.00 33 1017.3
20260831173604 34 306 4.8 12.9 0.00 0.00 0.00 33 1017.3
20260831173504 34 318 4.8 12.9 0.00 0.00 0.00 32 1017.3
20260831173404 34 322 4.8 12.9 0.00 0.00 0.00 32 1017.3
20260831173304 34 330 4.8 12.9 0.00 0.00 0.00 32 1017.3
20260831173204 34 343 4.8 12.9 0.00 0.00 0.00 32 1017.3
20260831173104 33 346 4.8 14.5 0.00 0.00 0.00 32 1017.4
20260831173004 33 349 4.8 14.5 0.00 0.00 0.00 32 1017.4
20260831172904 33 352 4.8 14.5 0.00 0.00 0.00 31 1017.4
20260831172804 33 352 4.8 14.5 0.00 0.00 0.00 31 1017.4
20260831172703 34 354 4.8 14.5 0.00 0.00 0.00 31 1017.4
20260831172603 33 358 4.8 14.5 0.00 0.00 0.00 31 1017.4
20260831172503 33 1 4.8 14.5 0.00 0.00 0.00 31 1017.4
20260831172403 33 15 4.8 14.5 0.00 0.00 0.00 31 1017.4
20260831172306 33 17 4.8 14.5 0.00 0.00 0.00 30 1017.4
20260831172203 33 10 4.8 16.1 0.00 0.00 0.00 30 1017.4
20260831172103 33 11 4.8 16.1 0.00 0.00 0.00 30 1017.4
20260831172003 33 16 4.8 16.1 0.00 0.00 0.00 30 1017.5
20260831171904 33 16 6.4 16.1 0.00 0.00 0.00 30 1017.4
20260831171804 33 21 6.4 16.1 0.00 0.00 0.00 30 1017.5
20260831171725 33 21 6.4 16.1 0.00 0.00 0.00 30 1017.5
20260831171603 33 19 6.4 16.1 0.00 0.00 0.00 29 1017.5
20260831171504 33 19 8.0 16.1 0.00 0.00 0.00 29 1017.5
20260831171425 33 20 8.0 19.3 0.00 0.00 0.00 29 1017.6
20260831171304 33 20 8.0 19.3 0.00 0.00 0.00 29 1017.6
20260831171204 33 18 8.0 19.3 0.00 0.00 0.00 28 1017.6
20260831171125 33 19 8.0 19.3 0.00 0.00 0.00 28 1017.5
20260831171004 33 23 8.0 19.3 0.00 0.00 0.00 28 1017.5
20260831170904 33 27 8.0 19.3 0.00 0.00 0.00 28 1017.5
20260831170804 33 27 8.0 19.3 0.00 0.00 0.00 28 1017.6
20260831170703 33 33 8.0 19.3 0.00 0.00 0.00 28 1017.6
20260831170604 33 38 8.0 19.3 0.00 0.00 0.00 28 1017.6
20260831170525 33 36 6.4 19.3 0.00 0.00 0.00 28 1017.6
20260831170425 33 37 6.4 14.5 0.00 0.00 0.00 27 1017.6
20260831170303 33 26 6.4 14.5 0.00 0.00 0.00 27 1017.7
20260831170204 33 31 6.4 14.5 0.00 0.00 0.00 27 1017.6
20260831170104 33 33 6.4 14.5 0.00 0.00 0.00 27 1017.7
20260831170004 33 28 6.4 14.5 0.00 0.00 0.00 26 1017.8
20260831165904 33 20 6.4 14.5 0.00 0.00 0.00 26 1017.8
20260831165804 33 6 6.4 14.5 0.00 0.00 0.00 26 1017.8
20260831165703 33 349 6.4 14.5 0.00 0.00 0.00 25 1017.8
20260831165603 32 340 4.8 14.5 0.00 0.00 0.00 25 1017.8
20260831165504 32 317 4.8 14.5 0.00 0.00 0.00 25 1017.8
20260831165404 32 298 4.8 14.5 0.00 0.00 0.00 25 1017.8
20260831165305 32 293 4.8 14.5 0.00 0.00 0.00 25 1017.8
20260831165203 32 298 4.8 14.5 0.00 0.00 0.00 25 1017.8
20260831165103 32 293 4.8 14.5 0.00 0.00 0.00 25 1017.9
20260831165003 32 296 4.8 14.5 0.00 0.00 0.00 25 1017.8
20260831164924 33 298 4.8 14.5 0.00 0.00 0.00 25 1017.8
20260831164824 33 303 4.8 14.5 0.00 0.00 0.00 25 1017.9
20260831164725 33 308 3.2 14.5 0.00 0.00 0.00 25 1017.8
20260831164603 33 307 4.8 14.5 0.00 0.00 0.00 25 1017.8
20260831164504 33 315 4.8 14.5 0.00 0.00 0.00 25 1017.8
20260831164403 33 350 4.8 14.5 0.00 0.00 0.00 24 1017.8
20260831164304 33 3 4.8 14.5 0.00 0.00 0.00 24 1017.8
20260831164204 33 6 4.8 14.5 0.00 0.00 0.00 22 1017.7
20260831164104 33 2 4.8 14.5 0.00 0.00 0.00 22 1017.7
20260831164025 33 360 4.8 14.5 0.00 0.00 0.00 22 1017.7
20260831163904 32 2 4.8 14.5 0.00 0.00 0.00 22 1017.8
20260831163803 32 5 6.4 14.5 0.00 0.00 0.00 22 1017.8
20260831163724 32 358 6.4 14.5 0.00 0.00 0.00 22 1017.9
20260831163604 32 11 6.4 14.5 0.00 0.00 0.00 22 1017.9
20260831163504 32 19 6.4 14.5 0.00 0.00 0.00 22 1017.8
20260831163404 32 15 4.8 12.9 0.00 0.00 0.00 22 1017.8
20260831163325 32 14 4.8 12.9 0.00 0.00 0.00 21 1017.8
20260831163204 32 18 4.8 12.9 0.00 0.00 0.00 20 1017.8
20260831163104 32 27 4.8 12.9 0.00 0.00 0.00 20 1017.8
20260831163004 32 37 4.8 12.9 0.00 0.00 0.00 19 1017.8
20260831162925 32 43 6.4 14.5 0.00 0.00 0.00 19 1017.7
20260831162804 32 47 4.8 14.5 0.00 0.00 0.00 18 1017.7
20260831162703 32 51 4.8 14.5 0.00 0.00 0.00 16 1017.8
20260831162603 32 46 4.8 14.5 0.00 0.00 0.00 16 1017.7
20260831162503 32 48 4.8 14.5 0.00 0.00 0.00 15 1017.7
20260831162404 32 50 4.8 14.5 0.00 0.00 0.00 15 1017.7
20260831162306 32 50 6.4 14.5 0.00 0.00 0.00 15 1017.7
20260831162204 32 50 6.4 14.5 0.00 0.00 0.00 14 1017.7
20260831162104 32 48 6.4 14.5 0.00 0.00 0.00 14 1017.7
20260831162003 32 47 6.4 14.5 0.00 0.00 0.00 14 1017.6
20260831161904 32 45 6.4 12.9 0.00 0.00 0.00 13 1017.6
20260831161803 32 42 6.4 12.9 0.00 0.00 0.00 12 1017.7
20260831161704 32 46 6.4 12.9 0.00 0.00 0.00 11 1017.6
20260831161604 32 49 6.4 12.9 0.00 0.00 0.00 10 1017.6
20260831161504 32 48 6.4 12.9 0.00 0.00 0.00 11 1017.6
20260831161404 32 45 6.4 12.9 0.00 0.00 0.00 11 1017.6
20260831161304 32 43 6.4 12.9 0.00 0.00 0.00 9 1017.7
20260831161204 32 39 6.4 14.5 0.00 0.00 0.00 9 1017.7
20260831161104 32 34 6.4 14.5 0.00 0.00 0.00 9 1017.6
20260831161003 32 32 6.4 14.5 0.00 0.00 0.00 10 1017.7
20260831160904 32 29 6.4 14.5 0.00 0.00 0.00 10 1017.7
20260831160804 31 32 6.4 14.5 0.00 0.00 0.00 9 1017.6
20260831160704 31 34 6.4 14.5 0.00 0.00 0.00 9 1017.7
20260831160603 31 34 8.0 14.5 0.00 0.00 0.00 8 1017.7
20260831160525 31 34 8.0 14.5 0.00 0.00 0.00 8 1017.7
20260831160404 31 36 6.4 14.5 0.00 0.00 0.00 5 1017.8
20260831160304 31 40 6.4 14.5 0.00 0.00 0.00 3 1017.7
20260831160203 31 45 6.4 14.5 0.00 0.00 0.00 2 1017.7
20260831160103 31 50 6.4 14.5 0.00 0.00 0.00 2 1017.7
20260831160004 31 48 6.4 14.5 0.00 0.00 0.00 1 1017.8
20260831155903 31 47 8.0 14.5 0.00 0.00 0.00 2 1017.8
20260831155804 31 46 8.0 17.7 0.00 0.00 0.00 2 1017.8
20260831155704 31 47 8.0 17.7 0.00 0.00 0.00 3 1017.8
20260831155604 31 47 6.4 17.7 0.00 0.00 0.00 1 1017.8
20260831155503 31 47 8.0 17.7 0.00 0.00 0.00 1 1017.8
20260831155403 31 48 8.0 17.7 0.00 0.00 0.00 1 1017.8
20260831155306 31 47 8.0 17.7 0.00 0.00 0.00 1 1017.8
20260831155203 31 47 6.4 17.7 0.00 0.00 0.00 1 1017.8
20260831155103 31 48 6.4 17.7 0.00 0.00 0.00 1 1017.8
20260831155003 31 48 6.4 17.7 0.00 0.00 0.00 1 1017.8
20260831154925 31 48 6.4 17.7 0.00 0.00 0.00 1 1017.8
20260831154804 31 49 6.4 12.9 0.00 0.00 0.00 1 1017.7
20260831154703 31 45 6.4 12.9 0.00 0.00 0.00 1 1017.8
20260831154603 31 44 6.4 12.9 0.00 0.00 0.00 1 1017.7
20260831154525 31 44 6.4 12.9 0.00 0.00 0.00 1 1017.8
20260831154403 31 37 6.4 14.5 0.00 0.00 0.00 1 1017.7
20260831154303 31 35 6.4 14.5 0.00 0.00 0.00 1 1017.7
20260831154203 30 34 6.4 14.5 0.00 0.00 0.00 1 1017.8
20260831154103 30 33 6.4 14.5 0.00 0.00 0.00 1 1017.8
20260831154003 30 34 6.4 14.5 0.00 0.00 0.00 1 1017.8
20260831153904 30 34 6.4 14.5 0.00 0.00 0.00 1 1017.7
20260831153804 30 34 6.4 14.5 0.00 0.00 0.00 1 1017.8
20260831153703 30 37 6.4 14.5 0.00 0.00 0.00 1 1017.7
20260831153624 30 37 6.4 16.1 0.00 0.00 0.00 1 1017.8
20260831153504 31 37 6.4 16.1 0.00 0.00 0.00 1 1017.8
20260831153404 31 37 6.4 16.1 0.00 0.00 0.00 1 1017.8
20260831153304 30 38 6.4 16.1 0.00 0.00 0.00 1 1017.8
20260831153204 30 40 6.4 16.1 0.00 0.00 0.00 1 1017.7
20260831153104 30 39 8.0 16.1 0.00 0.00 0.00 1 1017.7
20260831153004 30 41 8.0 16.1 0.00 0.00 0.00 1 1017.7
20260831152903 30 40 8.0 16.1 0.00 0.00 0.00 1 1017.7
20260831152803 30 40 8.0 16.1 0.00 0.00 0.00 1 1017.7
20260831152703 30 40 8.0 16.1 0.00 0.00 0.00 1 1017.7
20260831152604 30 39 8.0 16.1 0.00 0.00 0.00 1 1017.6
20260831152524 30 39 8.0 16.1 0.00 0.00 0.00 1 1017.7
20260831152403 30 40 8.0 16.1 0.00 0.00 0.00 1 1017.7
20260831152306 30 36 8.0 16.1 0.00 0.00 0.00 1 1017.7
20260831152224 30 36 8.0 16.1 0.00 0.00 0.00 1 1017.7
20260831152103 30 36 8.0 14.5 0.00 0.00 0.00 1 1017.7
20260831152004 30 34 8.0 14.5 0.00 0.00 0.00 1 1017.6
20260831151903 30 37 8.0 14.5 0.00 0.00 0.00 1 1017.6
20260831151803 30 39 8.0 14.5 0.00 0.00 0.00 1 1017.6
20260831151704 30 41 8.0 14.5 0.00 0.00 0.00 1 1017.6
20260831151625 30 40 8.0 14.5 0.00 0.00 0.00 1 1017.5
20260831151504 30 41 8.0 14.5 0.00 0.00 0.00 1 1017.6
20260831151403 30 43 8.0 14.5 0.00 0.00 0.00 1 1017.5
20260831151324 30 44 8.0 14.5 0.00 0.00 0.00 1 1017.5
20260831151203 30 44 9.7 17.7 0.00 0.00 0.00 1 1017.6
20260831151103 30 45 9.7 17.7 0.00 0.00 0.00 1 1017.6
20260831151003 29 47 8.0 17.7 0.00 0.00 0.00 1 1017.5
20260831150903 29 45 8.0 17.7 0.00 0.00 0.00 1 1017.5
20260831150804 29 45 8.0 17.7 0.00 0.00 0.00 1 1017.5
20260831150703 29 44 9.7 17.7 0.00 0.00 0.00 1 1017.5
20260831150625 29 44 9.7 20.9 0.00 0.00 0.00 1 1017.5
20260831150503 29 45 9.7 20.9 0.00 0.00 0.00 1 1017.5
20260831150404 30 43 9.7 20.9 0.00 0.00 0.00 1 1017.5
20260831150303 30 42 9.7 20.9 0.00 0.00 0.00 1 1017.5
20260831150204 30 42 9.7 20.9 0.00 0.00 0.00 1 1017.5
20260831150103 29 42 9.7 20.9 0.00 0.00 0.00 1 1017.5
20260831150004 29 41 9.7 20.9 0.00 0.00 0.00 1 1017.5
20260831145903 29 41 9.7 20.9 0.00 0.00 0.00 1 1017.4
20260831145803 29 38 9.7 20.9 0.00 0.00 0.00 1 1017.5
20260831145725 29 37 9.7 20.9 0.00 0.00 0.00 1 1017.4
20260831145604 29 38 9.7 17.7 0.00 0.00 0.00 1 1017.4
20260831145503 29 40 9.7 17.7 0.00 0.00 0.00 1 1017.5
20260831145404 29 40 9.7 17.7 0.00 0.00 0.00 1 1017.5
20260831145325 29 41 9.7 17.7 0.00 0.00 0.00 1 1017.5
20260831145204 29 41 9.7 17.7 0.00 0.00 0.00 1 1017.5
20260831145103 29 39 9.7 19.3 0.00 0.00 0.00 1 1017.4
20260831145003 29 39 9.7 19.3 0.00 0.00 0.00 1 1017.4
20260831144903 28 38 9.7 19.3 0.00 0.00 0.00 1 1017.4
20260831144803 28 39 9.7 19.3 0.00 0.00 0.00 1 1017.4
20260831144703 28 38 9.7 19.3 0.00 0.00 0.00 1 1017.4
20260831144604 28 38 9.7 19.3 0.00 0.00 0.00 1 1017.4
20260831144504 28 36 9.7 19.3 0.00 0.00 0.00 1 1017.4
20260831144404 28 36 9.7 19.3 0.00 0.00 0.00 1 1017.4
20260831144325 28 36 9.7 19.3 0.00 0.00 0.00 1 1017.4
20260831144204 28 38 8.0 19.3 0.00 0.00 0.00 1 1017.4
20260831144103 28 39 8.0 16.1 0.00 0.00 0.00 1 1017.4
20260831144003 28 40 8.0 16.1 0.00 0.00 0.00 1 1017.4
20260831143904 28 41 8.0 16.1 0.00 0.00 0.00 1 1017.4
20260831143804 28 40 6.4 16.1 0.00 0.00 0.00 1 1017.3
20260831143703 29 40 6.4 16.1 0.00 0.00 0.00 1 1017.3
20260831143604 29 38 6.4 16.1 0.00 0.00 0.00 1 1017.3
20260831143525 29 36 6.4 14.5 0.00 0.00 0.00 1 1017.3
20260831143425 29 31 6.4 14.5 0.00 0.00 0.00 1 1017.3
20260831143324 29 21 4.8 14.5 0.00 0.00 0.00 1 1017.3
20260831143204 29 11 4.8 14.5 0.00 0.00 0.00 1 1017.3
20260831143103 29 6 4.8 14.5 0.00 0.00 0.00 1 1017.3
20260831143003 29 357 4.8 14.5 0.00 0.00 0.00 1 1017.3
20260831142904 29 352 4.8 14.5 0.00 0.00 0.00 1 1017.3
20260831142803 29 345 4.8 12.9 0.00 0.00 0.00 1 1017.3
20260831142703 28 331 4.8 9.7 0.00 0.00 0.00 1 1017.3
20260831142603 28 333 4.8 9.7 0.00 0.00 0.00 1 1017.3
20260831142504 28 338 4.8 12.9 0.00 0.00 0.00 1 1017.3
20260831142404 28 347 4.8 12.9 0.00 0.00 0.00 1 1017.3
20260831142324 28 352 6.4 12.9 0.00 0.00 0.00 1 1017.3
20260831142203 28 2 6.4 12.9 0.00 0.00 0.00 1 1017.3
20260831142103 28 8 6.4 12.9 0.00 0.00 0.00 1 1017.4
20260831142003 28 9 6.4 12.9 0.00 0.00 0.00 1 1017.4
20260831141904 28 7 6.4 12.9 0.00 0.00 0.00 1 1017.3
20260831141804 28 3 6.4 12.9 0.00 0.00 0.00 1 1017.3
20260831141703 28 10 6.4 12.9 0.00 0.00 0.00 1 1017.3
20260831141603 28 12 6.4 12.9 0.00 0.00 0.00 1 1017.2
20260831141504 28 19 6.4 12.9 0.00 0.00 0.00 1 1017.2
20260831141403 28 24 6.4 12.9 0.00 0.00 0.00 1 1017.3
20260831141324 28 24 6.4 12.9 0.00 0.00 0.00 1 1017.3
20260831141203 28 25 6.4 12.9 0.00 0.00 0.00 1 1017.3
20260831141104 28 27 4.8 12.9 0.00 0.00 0.00 1 1017.3
20260831141004 28 33 4.8 12.9 0.00 0.00 0.00 1 1017.2
20260831140903 27 39 4.8 12.9 0.00 0.00 0.00 1 1017.3
20260831140803 27 47 4.8 12.9 0.00 0.00 0.00 1 1017.3
20260831140704 27 49 4.8 12.9 0.00 0.00 0.00 1 1017.3
20260831140604 27 51 4.8 12.9 0.00 0.00 0.00 1 1017.2
20260831140504 27 52 4.8 11.3 0.00 0.00 0.00 1 1017.2
20260831140404 27 49 4.8 12.9 0.00 0.00 0.00 1 1017.2
20260831140303 27 50 4.8 12.9 0.00 0.00 0.00 1 1017.3
20260831140204 27 49 4.8 12.9 0.00 0.00 0.00 1 1017.2
20260831140004 27 47 4.8 12.9 0.00 0.00 0.00 1 1017.2
20260831135904 27 47 4.8 12.9 0.00 0.00 0.00 1 1017.2
20260831135804 27 45 4.8 12.9 0.00 0.00 0.00 1 1017.2
20260831135704 27 44 4.8 12.9 0.00 0.00 0.00 1 1017.2
20260831135603 27 43 6.4 12.9 0.00 0.00 0.00 1 1017.2
20260831135504 26 43 6.4 12.9 0.00 0.00 0.00 1 1017.2
20260831135404 26 43 6.4 12.9 0.00 0.00 0.00 1 1017.2
20260831135306 26 43 6.4 12.9 0.00 0.00 0.00 1 1017.2
20260831135203 26 42 6.4 12.9 0.00 0.00 0.00 1 1017.2
20260831135103 26 40 6.4 12.9 0.00 0.00 0.00 1 1017.2
20260831135003 26 42 6.4 12.9 0.00 0.00 0.00 1 1017.1
20260831134903 26 44 6.4 12.9 0.00 0.00 0.00 1 1017.0
20260831134803 26 46 6.4 12.9 0.00 0.00 0.00 1 1017.1
20260831134724 26 47 6.4 12.9 0.00 0.00 0.00 1 1017.0
20260831134624 26 49 6.4 12.9 0.00 0.00 0.00 1 1017.0
20260831134503 26 52 4.8 12.9 0.00 0.00 0.00 1 1017.0
20260831134403 26 53 4.8 11.3 0.00 0.00 0.00 1 1017.0
20260831134303 26 55 4.8 8.0 0.00 0.00 0.00 1 1017.0
20260831134205 26 57 4.8 8.0 0.00 0.00 0.00 1 1017.0
20260831134104 26 61 4.8 8.0 0.00 0.00 0.00 1 1017.0
20260831134025 26 60 4.8 8.0 0.00 0.00 0.00 1 1016.9
20260831133903 26 60 4.8 8.0 0.00 0.00 0.00 1 1017.0
20260831133804 26 59 4.8 9.7 0.00 0.00 0.00 1 1016.9
20260831133704 26 59 4.8 9.7 0.00 0.00 0.00 1 1016.9
20260831133603 26 58 4.8 9.7 0.00 0.00 0.00 1 1016.9
20260831133503 26 58 4.8 9.7 0.00 0.00 0.00 1 1016.9
20260831133404 26 58 4.8 9.7 0.00 0.00 0.00 1 1016.9
20260831133304 26 59 4.8 9.7 0.00 0.00 0.00 1 1017.0
20260831133204 26 58 4.8 9.7 0.00 0.00 0.00 1 1016.9
20260831133103 26 57 4.8 9.7 0.00 0.00 0.00 1 1016.9
20260831133003 26 57 4.8 9.7 0.00 0.00 0.00 1 1016.9
20260831132903 26 55 4.8 9.7 0.00 0.00 0.00 1 1016.9
20260831132803 26 53 3.2 9.7 0.00 0.00 0.00 1 1016.9
20260831132703 26 49 4.8 9.7 0.00 0.00 0.00 1 1016.9
20260831132603 26 47 4.8 9.7 0.00 0.00 0.00 1 1016.9
20260831132503 26 47 4.8 9.7 0.00 0.00 0.00 1 1016.8
20260831132404 26 47 4.8 9.7 0.00 0.00 0.00 1 1016.8
20260831132306 26 46 4.8 9.7 0.00 0.00 0.00 1 1016.8
20260831132203 26 45 4.8 9.7 0.00 0.00 0.00 1 1016.8
20260831132103 26 45 4.8 9.7 0.00 0.00 0.00 1 1016.8
20260831132004 26 45 4.8 9.7 0.00 0.00 0.00 1 1016.8
20260831131903 26 45 4.8 9.7 0.00 0.00 0.00 1 1016.8
20260831131825 26 45 4.8 9.7 0.00 0.00 0.00 1 1016.8
20260831131703 26 46 4.8 11.3 0.00 0.00 0.00 1 1016.8
20260831131604 26 49 4.8 11.3 0.00 0.00 0.00 1 1016.8
20260831131503 26 49 4.8 11.3 0.00 0.00 0.00 1 1016.8
20260831131404 26 49 4.8 11.3 0.00 0.00 0.00 1 1016.8
20260831131303 25 51 4.8 11.3 0.00 0.00 0.00 1 1016.7
20260831131204 25 51 4.8 11.3 0.00 0.00 0.00 1 1016.7
20260831131104 25 50 4.8 11.3 0.00 0.00 0.00 1 1016.7
20260831131025 25 49 4.8 11.3 0.00 0.00 0.00 1 1016.7
20260831130903 25 47 4.8 11.3 0.00 0.00 0.00 1 1016.7
20260831130803 25 48 4.8 11.3 0.00 0.00 0.00 1 1016.7
20260831130724 25 48 4.8 9.7 0.00 0.00 0.00 1 1016.7
20260831130624 25 47 4.8 9.7 0.00 0.00 0.00 1 1016.7
20260831130525 25 46 4.8 9.7 0.00 0.00 0.00 1 1016.7
20260831130424 25 45 4.8 9.7 0.00 0.00 0.00 1 1016.6
20260831130304 25 44 4.8 9.7 0.00 0.00 0.00 1 1016.6
20260831130203 25 43 4.8 9.7 0.00 0.00 0.00 1 1016.7
20260831130004 25 46 4.8 8.0 0.00 0.00 0.00 1 1016.7
20260831125925 25 45 4.8 8.0 0.00 0.00 0.00 1 1016.6
20260831125803 25 44 4.8 8.0 0.00 0.00 0.00 1 1016.5
20260831125703 25 41 4.8 8.0 0.00 0.00 0.00 1 1016.5
20260831125603 25 41 4.8 8.0 0.00 0.00 0.00 1 1016.5
20260831125503 25 42 4.8 8.0 0.00 0.00 0.00 1 1016.5
20260831125403 25 42 3.2 8.0 0.00 0.00 0.00 1 1016.5
20260831125306 25 42 3.2 8.0 0.00 0.00 0.00 1 1016.5
20260831125204 25 42 3.2 8.0 0.00 0.00 0.00 1 1016.5
20260831125124 25 43 3.2 8.0 0.00 0.00 0.00 1 1016.5
20260831125004 25 46 3.2 9.7 0.00 0.00 0.00 1 1016.5
20260831124925 25 48 3.2 9.7 0.00 0.00 0.00 1 1016.5
20260831124804 25 53 3.2 9.7 0.00 0.00 0.00 1 1016.5
20260831124724 25 54 3.2 9.7 0.00 0.00 0.00 1 1016.5
20260831124603 25 58 3.2 9.7 0.00 0.00 0.00 1 1016.4
20260831124503 25 59 3.2 9.7 0.00 0.00 0.00 1 1016.4
20260831124403 25 59 3.2 9.7 0.00 0.00 0.00 1 1016.4
20260831124303 25 60 3.2 9.7 0.00 0.00 0.00 1 1016.4
20260831124203 25 60 3.2 9.7 0.00 0.00 0.00 1 1016.3
20260831124103 25 61 3.2 9.7 0.00 0.00 0.00 1 1016.3
20260831124003 25 63 3.2 8.0 0.00 0.00 0.00 1 1016.3
20260831123904 25 64 3.2 8.0 0.00 0.00 0.00 1 1016.3
20260831123803 25 65 3.2 8.0 0.00 0.00 0.00 1 1016.3
20260831123703 25 65 3.2 8.0 0.00 0.00 0.00 1 1016.3
20260831123604 25 66 3.2 8.0 0.00 0.00 0.00 1 1016.3
20260831123503 25 67 3.2 8.0 0.00 0.00 0.00 1 1016.3
20260831123403 25 64 3.2 9.7 0.00 0.00 0.00 1 1016.4
20260831123304 25 62 3.2 9.7 0.00 0.00 0.00 1 1016.3
20260831123204 25 59 4.8 11.3 0.00 0.00 0.00 1 1016.3
20260831123103 25 58 4.8 11.3 0.00 0.00 0.00 1 1016.3
20260831123004 25 58 4.8 11.3 0.00 0.00 0.00 1 1016.3
20260831122903 25 58 4.8 11.3 0.00 0.00 0.00 1 1016.4
20260831122825 25 58 4.8 11.3 0.00 0.00 0.00 1 1016.4
20260831122703 25 57 4.8 11.3 0.00 0.00 0.00 1 1016.4
20260831122603 25 56 4.8 11.3 0.00 0.00 0.00 1 1016.4
20260831122524 25 56 4.8 11.3 0.00 0.00 0.00 1 1016.4
20260831122425 25 55 4.8 11.3 0.00 0.00 0.00 1 1016.4
20260831122305 25 58 4.8 11.3 0.00 0.00 0.00 1 1016.4
20260831122204 25 60 4.8 9.7 0.00 0.00 0.00 1 1016.3
20260831122104 25 59 3.2 9.7 0.00 0.00 0.00 1 1016.4
20260831122004 25 57 4.8 9.7 0.00 0.00 0.00 1 1016.4
20260831121903 25 55 4.8 9.7 0.00 0.00 0.00 1 1016.4
20260831121803 25 53 4.8 9.7 0.00 0.00 0.00 1 1016.4
20260831121704 25 52 4.8 9.7 0.00 0.00 0.00 1 1016.4
20260831121604 25 51 4.8 9.7 0.00 0.00 0.00 1 1016.3
20260831121504 25 49 4.8 9.7 0.00 0.00 0.00 1 1016.3
20260831121404 25 47 3.2 9.7 0.00 0.00 0.00 1 1016.3
20260831121303 25 44 3.2 9.7 0.00 0.00 0.00 1 1016.3
20260831121203 25 45 4.8 9.7 0.00 0.00 0.00 1 1016.3
20260831121103 25 46 4.8 9.7 0.00 0.00 0.00 1 1016.2
20260831121003 25 47 4.8 9.7 0.00 0.00 0.00 1 1016.2
20260831120903 25 49 4.8 9.7 0.00 0.00 0.00 1 1016.2
20260831120825 25 50 4.8 9.7 0.00 0.00 0.00 1 1016.2
20260831120703 25 51 4.8 9.7 0.00 0.00 0.00 1 1016.3
20260831120604 25 52 4.8 9.7 0.00 0.00 0.00 1 1016.2
20260831120504 25 52 4.8 9.7 0.00 0.00 0.00 1 1016.2
20260831120425 25 52 6.4 9.7 0.00 0.00 0.00 1 1016.2
20260831120303 25 52 6.4 12.9 0.00 0.00 0.00 1 1016.2
20260831120206 25 52 6.4 12.9 0.00 0.00 0.00 1 1016.2
20260831120103 25 51 6.4 12.9 0.00 0.00 0.00 1 1016.2
20260831120004 25 50 6.4 12.9 0.00 0.00 0.00 1 1016.2
20260831115903 25 49 6.4 12.9 0.00 0.00 0.00 1 1016.2
20260831115804 25 49 6.4 12.9 0.00 0.00 0.00 1 1016.2
20260831115725 25 49 6.4 12.9 0.00 0.00 0.00 1 1016.2
20260831115624 25 48 6.4 12.9 0.00 0.00 0.00 1 1016.2
20260831115504 25 49 6.4 12.9 0.00 0.00 0.00 1 1016.2
20260831115403 25 51 6.4 12.9 0.00 0.00 0.00 1 1016.2
20260831115306 25 51 6.4 12.9 0.00 0.00 0.00 1 1016.2
20260831115204 25 51 6.4 12.9 0.00 0.00 0.00 1 1016.2
20260831115103 25 52 6.4 12.9 0.00 0.00 0.00 1 1016.2
20260831115024 25 51 6.4 14.5 0.00 0.00 0.00 1 1016.2
20260831114903 25 51 6.4 14.5 0.00 0.00 0.00 1 1016.2
20260831114803 25 50 6.4 14.5 0.00 0.00 0.00 1 1016.2
20260831114703 25 49 6.4 14.5 0.00 0.00 0.00 1 1016.2
20260831114603 25 48 8.0 14.5 0.00 0.00 0.00 1 1016.2
20260831114503 25 48 8.0 14.5 0.00 0.00 0.00 1 1016.2
20260831114403 25 48 8.0 14.5 0.00 0.00 0.00 1 1016.3
20260831114303 25 47 8.0 14.5 0.00 0.00 0.00 1 1016.2
20260831114224 25 48 8.0 14.5 0.00 0.00 0.00 1 1016.3
20260831114124 25 48 8.0 14.5 0.00 0.00 0.00 1 1016.2
20260831114003 25 50 9.7 14.5 0.00 0.00 0.00 1 1016.2
20260831113924 25 49 9.7 14.5 0.00 0.00 0.00 1 1016.2
20260831113803 25 52 8.0 14.5 0.00 0.00 0.00 1 1016.2
20260831113704 25 52 8.0 14.5 0.00 0.00 0.00 1 1016.2
20260831113625 25 53 8.0 14.5 0.00 0.00 0.00 1 1016.2
20260831113503 25 56 8.0 14.5 0.00 0.00 0.00 1 1016.2
20260831113403 25 56 8.0 14.5 0.00 0.00 0.00 1 1016.3
20260831113304 25 58 8.0 14.5 0.00 0.00 0.00 1 1016.2
20260831113204 25 59 8.0 14.5 0.00 0.00 0.00 1 1016.2
20260831113103 25 59 8.0 14.5 0.00 0.00 0.00 1 1016.2
20260831113025 25 61 6.4 14.5 0.00 0.00 0.00 1 1016.3
20260831112904 25 61 6.4 12.9 0.00 0.00 0.00 1 1016.3
20260831112803 25 59 6.4 12.9 0.00 0.00 0.00 1 1016.3
20260831112703 25 59 6.4 12.9 0.00 0.00 0.00 1 1016.2
20260831112603 25 57 6.4 12.9 0.00 0.00 0.00 1 1016.2
20260831112504 25 51 6.4 12.9 0.00 0.00 0.00 1 1016.2
20260831112404 25 50 6.4 12.9 0.00 0.00 0.00 1 1016.3
20260831112307 25 48 6.4 12.9 0.00 0.00 0.00 1 1016.3
20260831112203 25 45 4.8 9.7 0.00 0.00 0.00 1 1016.3
20260831112104 25 45 4.8 9.7 0.00 0.00 0.00 1 1016.3
20260831112003 25 44 4.8 9.7 0.00 0.00 0.00 1 1016.3
20260831111904 25 44 4.8 9.7 0.00 0.00 0.00 1 1016.3
20260831111803 25 46 4.8 9.7 0.00 0.00 0.00 1 1016.2
20260831111704 25 45 4.8 11.3 0.00 0.00 0.00 1 1016.3
20260831111603 25 46 4.8 11.3 0.00 0.00 0.00 1 1016.3
20260831111503 25 46 4.8 11.3 0.00 0.00 0.00 1 1016.3
20260831111424 25 43 4.8 11.3 0.00 0.00 0.00 1 1016.2
20260831111303 25 36 4.8 11.3 0.00 0.00 0.00 1 1016.2
20260831111203 25 35 4.8 11.3 0.00 0.00 0.00 1 1016.1
20260831111104 25 33 4.8 11.3 0.00 0.00 0.00 1 1016.1
20260831111003 25 29 4.8 11.3 0.00 0.00 0.00 1 1016.1
20260831110903 25 26 4.8 11.3 0.00 0.00 0.00 1 1016.1
20260831110803 25 26 4.8 11.3 0.00 0.00 0.00 1 1016.2
20260831110703 25 26 4.8 11.3 0.00 0.00 0.00 1 1016.1
20260831110603 25 27 4.8 11.3 0.00 0.00 0.00 1 1016.1
20260831110503 25 31 4.8 11.3 0.00 0.00 0.00 1 1016.1
20260831110404 25 40 4.8 11.3 0.00 0.00 0.00 1 1016.1
20260831110303 25 45 4.8 11.3 0.00 0.00 0.00 1 1016.1
20260831110203 25 47 4.8 12.9 0.00 0.00 0.00 1 1016.1
20260831110103 25 48 4.8 12.9 0.00 0.00 0.00 1 1016.1
20260831110003 25 50 4.8 12.9 0.00 0.00 0.00 1 1016.1
20260831105904 25 51 4.8 12.9 0.00 0.00 0.00 1 1016.1
20260831105824 25 51 3.2 12.9 0.00 0.00 0.00 1 1016.1
20260831105703 25 50 4.8 12.9 0.00 0.00 0.00 1 1016.1
20260831105603 25 49 4.8 12.9 0.00 0.00 0.00 1 1016.1
20260831105503 25 48 4.8 12.9 0.00 0.00 0.00 1 1016.1
20260831105424 25 48 3.2 12.9 0.00 0.00 0.00 1 1016.1
20260831105306 25 44 4.8 12.9 0.00 0.00 0.00 1 1016.1
20260831105203 25 42 3.2 9.7 0.00 0.00 0.00 1 1016.1
20260831105125 25 42 4.8 9.7 0.00 0.00 0.00 1 1016.1
20260831105024 25 44 4.8 9.7 0.00 0.00 0.00 1 1016.1
20260831104903 25 46 4.8 9.7 0.00 0.00 0.00 1 1016.1
20260831104803 25 48 4.8 9.7 0.00 0.00 0.00 1 1016.1
20260831104703 25 49 4.8 8.0 0.00 0.00 0.00 1 1016.1
20260831104603 25 51 4.8 8.0 0.00 0.00 0.00 1 1016.1
20260831104504 25 53 4.8 8.0 0.00 0.00 0.00 1 1016.1
20260831104403 25 54 4.8 8.0 0.00 0.00 0.00 1 1016.1
20260831104303 25 57 4.8 8.0 0.00 0.00 0.00 1 1016.1
20260831104203 25 59 4.8 8.0 0.00 0.00 0.00 1 1016.1
20260831104124 25 60 4.8 6.4 0.00 0.00 0.00 1 1016.1
20260831104003 25 60 4.8 8.0 0.00 0.00 0.00 1 1016.2
20260831103903 25 59 4.8 9.7 0.00 0.00 0.00 1 1016.1
20260831103803 25 57 4.8 9.7 0.00 0.00 0.00 1 1016.1
20260831103724 25 56 4.8 9.7 0.00 0.00 0.00 1 1016.2
20260831103604 25 54 4.8 9.7 0.00 0.00 0.00 1 1016.1
20260831103503 25 51 4.8 14.5 0.00 0.00 0.00 1 1016.2
20260831103404 25 51 4.8 14.5 0.00 0.00 0.00 1 1016.1
20260831103303 25 51 4.8 14.5 0.00 0.00 0.00 1 1016.1
20260831103204 25 50 6.4 14.5 0.00 0.00 0.00 1 1016.1
20260831103124 25 48 6.4 14.5 0.00 0.00 0.00 1 1016.1
20260831103025 25 47 6.4 14.5 0.00 0.00 0.00 1 1016.1
20260831102925 25 46 6.4 14.5 0.00 0.00 0.00 1 1016.2
20260831102803 25 45 6.4 14.5 0.00 0.00 0.00 1 1016.1
20260831102704 25 45 6.4 14.5 0.00 0.00 0.00 1 1016.1
20260831102603 25 45 6.4 14.5 0.00 0.00 0.00 1 1016.1
20260831102503 25 45 6.4 14.5 0.00 0.00 0.00 1 1016.2
20260831102403 25 43 6.4 14.5 0.00 0.00 0.00 1 1016.2
20260831102306 25 43 6.4 14.5 0.00 0.00 0.00 1 1016.1
20260831102224 25 43 6.4 14.5 0.00 0.00 0.00 1 1016.1
20260831102103 25 44 6.4 14.5 0.00 0.00 0.00 1 1016.1
20260831102003 25 43 6.4 16.1 0.00 0.00 0.00 1 1016.1
20260831101924 25 43 6.4 16.1 0.00 0.00 0.00 1 1016.1
20260831101804 25 43 6.4 16.1 0.00 0.00 0.00 1 1016.1
20260831101703 25 43 6.4 16.1 0.00 0.00 0.00 1 1016.1
20260831101603 25 44 6.4 16.1 0.00 0.00 0.00 1 1016.1
20260831101503 25 45 8.0 16.1 0.00 0.00 0.00 1 1016.2
20260831101403 25 46 8.0 16.1 0.00 0.00 0.00 1 1016.2
20260831101324 25 46 8.0 16.1 0.00 0.00 0.00 1 1016.2
20260831101203 25 47 6.4 16.1 0.00 0.00 0.00 1 1016.2
20260831101103 25 47 6.4 16.1 0.00 0.00 0.00 1 1016.2
20260831101003 25 48 6.4 14.5 0.00 0.00 0.00 1 1016.2
20260831100903 25 48 6.4 14.5 0.00 0.00 0.00 1 1016.2
20260831100803 25 48 6.4 14.5 0.00 0.00 0.00 1 1016.2
20260831100704 25 47 6.4 16.1 0.00 0.00 0.00 1 1016.2
20260831100604 25 46 8.0 16.1 0.00 0.00 0.00 1 1016.2
20260831100504 25 45 8.0 16.1 0.00 0.00 0.00 1 1016.2
20260831100404 25 44 6.4 16.1 0.00 0.00 0.00 1 1016.2
20260831100303 25 43 6.4 16.1 0.00 0.00 0.00 1 1016.2
20260831100203 25 42 8.0 16.1 0.00 0.00 0.00 1 1016.2
20260831100103 25 41 6.4 16.1 0.00 0.00 0.00 1 1016.2
20260831100004 25 41 8.0 16.1 0.00 0.00 0.00 1 1016.3
20260831095925 25 41 6.4 16.1 0.00 0.00 0.00 1 1016.3
20260831095803 25 42 6.4 16.1 0.00 0.00 0.00 1 1016.3
20260831095703 25 43 4.8 16.1 0.00 0.00 0.00 1 1016.3
20260831095603 25 45 4.8 11.3 0.00 0.00 0.00 1 1016.3
20260831095503 25 46 4.8 11.3 0.00 0.00 0.00 1 1016.3
20260831095403 25 48 4.8 11.3 0.00 0.00 0.00 1 1016.3
20260831095306 25 49 4.8 11.3 0.00 0.00 0.00 1 1016.3
20260831095203 25 49 4.8 11.3 0.00 0.00 0.00 1 1016.3
20260831095103 25 49 4.8 11.3 0.00 0.00 0.00 1 1016.3
20260831095004 25 50 4.8 11.3 0.00 0.00 0.00 1 1016.3
20260831094903 25 50 4.8 9.7 0.00 0.00 0.00 1 1016.3
20260831094803 25 50 4.8 9.7 0.00 0.00 0.00 1 1016.2
20260831094703 25 50 4.8 9.7 0.00 0.00 0.00 1 1016.2
20260831094624 25 49 4.8 9.7 0.00 0.00 0.00 1 1016.2
20260831094503 25 49 4.8 9.7 0.00 0.00 0.00 1 1016.2
20260831094403 25 48 3.2 9.7 0.00 0.00 0.00 1 1016.2
20260831094303 25 49 3.2 9.7 0.00 0.00 0.00 1 1016.2
20260831094204 25 51 3.2 8.0 0.00 0.00 0.00 1 1016.2
20260831094103 25 51 3.2 9.7 0.00 0.00 0.00 1 1016.2
20260831094003 25 52 3.2 9.7 0.00 0.00 0.00 1 1016.2
20260831093903 25 52 3.2 9.7 0.00 0.00 0.00 1 1016.2
20260831093803 25 52 3.2 9.7 0.00 0.00 0.00 1 1016.2
20260831093725 25 52 3.2 9.7 0.00 0.00 0.00 1 1016.2
20260831093603 25 52 4.8 9.7 0.00 0.00 0.00 1 1016.2
20260831093504 25 51 4.8 9.7 0.00 0.00 0.00 1 1016.2
20260831093403 25 50 4.8 9.7 0.00 0.00 0.00 1 1016.2
20260831093303 25 49 4.8 9.7 0.00 0.00 0.00 1 1016.1
20260831093203 25 49 4.8 9.7 0.00 0.00 0.00 1 1016.2
20260831093103 25 48 4.8 9.7 0.00 0.00 0.00 1 1016.1
20260831093024 25 47 4.8 9.7 0.00 0.00 0.00 1 1016.1
20260831092903 25 45 4.8 9.7 0.00 0.00 0.00 1 1016.1
20260831092803 25 43 4.8 9.7 0.00 0.00 0.00 1 1016.1
20260831092724 25 43 4.8 9.7 0.00 0.00 0.00 1 1016.0
20260831092604 25 42 4.8 9.7 0.00 0.00 0.00 1 1016.0
20260831092503 25 41 4.8 9.7 0.00 0.00 0.00 1 1016.0
20260831092403 25 41 4.8 9.7 0.00 0.00 0.00 1 1016.0
20260831092306 25 41 4.8 9.7 0.00 0.00 0.00 1 1016.0
20260831092203 25 41 3.2 9.7 0.00 0.00 0.00 1 1016.0
20260831092124 25 41 3.2 9.7 0.00 0.00 0.00 1 1016.0
20260831092004 25 41 3.2 9.7 0.00 0.00 0.00 1 1015.9
20260831091924 25 41 3.2 9.7 0.00 0.00 0.00 1 1015.9
20260831091803 25 41 3.2 9.7 0.00 0.00 0.00 1 1015.9
20260831091703 25 42 3.2 9.7 0.00 0.00 0.00 1 1015.9
20260831091624 25 42 3.2 9.7 0.00 0.00 0.00 1 1015.9
20260831091503 25 43 3.2 9.7 0.00 0.00 0.00 1 1015.9
20260831091424 25 44 3.2 9.7 0.00 0.00 0.00 1 1015.9
20260831091324 25 45 3.2 9.7 0.00 0.00 0.00 1 1015.9
20260831091224 25 46 3.2 9.7 0.00 0.00 0.00 1 1015.9
20260831091103 25 45 3.2 9.7 0.00 0.00 0.00 1 1015.9
20260831091004 25 46 3.2 9.7 0.00 0.00 0.00 1 1015.9
20260831090903 25 46 3.2 9.7 0.00 0.00 0.00 1 1015.9
20260831090824 25 46 4.8 9.7 0.00 0.00 0.00 1 1015.9
20260831090704 25 49 4.8 9.7 0.00 0.00 0.00 1 1015.9
20260831090604 25 47 4.8 11.3 0.00 0.00 0.00 1 1015.8
20260831090503 25 48 4.8 11.3 0.00 0.00 0.00 1 1015.9
20260831090403 25 49 6.4 11.3 0.00 0.00 0.00 1 1015.9
20260831090303 25 49 4.8 11.3 0.00 0.00 0.00 1 1015.9
20260831090203 25 49 6.4 11.3 0.00 0.00 0.00 1 1015.9
20260831090124 25 49 6.4 11.3 0.00 0.00 0.00 1 1015.9
20260831090004 25 50 6.4 11.3 0.00 0.00 0.00 1 1015.9
20260831085903 25 50 6.4 11.3 0.00 0.00 0.00 1 1015.9
20260831085803 25 50 4.8 11.3 0.00 0.00 0.00 1 1015.9
20260831085703 25 48 4.8 11.3 0.00 0.00 0.00 1 1015.9
20260831085603 25 51 4.8 11.3 0.00 0.00 0.00 1 1015.9
20260831085503 25 51 4.8 11.3 0.00 0.00 0.00 1 1015.9
20260831085424 25 50 4.8 11.3 0.00 0.00 0.00 1 1015.9
20260831085306 25 49 4.8 11.3 0.00 0.00 0.00 1 1015.9
20260831085224 25 49 4.8 11.3 0.00 0.00 0.00 1 1016.0
20260831085125 25 48 4.8 11.3 0.00 0.00 0.00 1 1016.0
20260831085003 25 47 4.8 12.9 0.00 0.00 0.00 1 1016.0
20260831084903 25 47 4.8 12.9 0.00 0.00 0.00 1 1016.0
20260831084803 25 47 4.8 12.9 0.00 0.00 0.00 1 1016.1
20260831084703 25 47 4.8 12.9 0.00 0.00 0.00 1 1016.1
20260831084605 25 47 6.4 12.9 0.00 0.00 0.00 1 1016.1
20260831084503 25 47 6.4 12.9 0.00 0.00 0.00 1 1016.0
20260831084403 25 45 6.4 12.9 0.00 0.00 0.00 1 1016.0
20260831084303 25 44 6.4 12.9 0.00 0.00 0.00 1 1016.0
20260831084203 25 45 6.4 14.5 0.00 0.00 0.00 1 1016.0
20260831084103 25 45 6.4 14.5 0.00 0.00 0.00 1 1016.0
20260831084003 25 46 6.4 14.5 0.00 0.00 0.00 1 1016.0
20260831083903 25 46 6.4 14.5 0.00 0.00 0.00 1 1016.0
20260831083803 25 45 6.4 14.5 0.00 0.00 0.00 1 1016.0
20260831083704 25 46 6.4 14.5 0.00 0.00 0.00 1 1016.0
20260831083603 25 45 6.4 14.5 0.00 0.00 0.00 1 1015.9
20260831083524 25 45 6.4 14.5 0.00 0.00 0.00 1 1016.0
20260831083424 25 46 6.4 14.5 0.00 0.00 0.00 1 1015.9
20260831083303 26 48 6.4 14.5 0.00 0.00 0.00 1 1016.0
20260831083204 26 47 6.4 12.9 0.00 0.00 0.00 1 1016.0
20260831083104 26 47 6.4 12.9 0.00 0.00 0.00 1 1016.0
20260831083006 26 45 6.4 14.5 0.00 0.00 0.00 1 1015.9
20260831082903 26 45 6.4 14.5 0.00 0.00 0.00 1 1015.9
20260831082824 26 45 6.4 14.5 0.00 0.00 0.00 1 1015.9
20260831082704 26 44 6.4 14.5 0.00 0.00 0.00 1 1016.0
20260831082603 26 44 6.4 14.5 0.00 0.00 0.00 1 1016.0
20260831082503 26 43 6.4 14.5 0.00 0.00 0.00 1 1016.0
20260831082424 26 42 6.4 14.5 0.00 0.00 0.00 1 1016.0
20260831082306 26 44 6.4 14.5 0.00 0.00 0.00 1 1016.0
20260831082203 26 44 6.4 14.5 0.00 0.00 0.00 1 1016.0
20260831082103 26 41 6.4 14.5 0.00 0.00 0.00 1 1016.1
20260831082024 26 39 6.4 12.9 0.00 0.00 0.00 1 1016.1
20260831081903 26 38 6.4 12.9 0.00 0.00 0.00 1 1016.1
20260831081803 26 38 6.4 11.3 0.00 0.00 0.00 1 1016.1
20260831081703 26 34 6.4 11.3 0.00 0.00 0.00 1 1016.1
20260831081603 26 34 6.4 11.3 0.00 0.00 0.00 1 1016.1
20260831081503 26 33 4.8 11.3 0.00 0.00 0.00 1 1016.1
20260831081403 26 32 4.8 11.3 0.00 0.00 0.00 1 1016.1
20260831081303 26 28 4.8 11.3 0.00 0.00 0.00 1 1016.1
20260831081224 26 27 4.8 11.3 0.00 0.00 0.00 1 1016.1
20260831081103 26 27 4.8 11.3 0.00 0.00 0.00 1 1016.1
20260831081024 26 31 4.8 12.9 0.00 0.00 0.00 1 1016.1
20260831080904 26 31 4.8 12.9 0.00 0.00 0.00 1 1016.1
20260831080803 26 32 4.8 12.9 0.00 0.00 0.00 1 1016.1
20260831080703 26 35 4.8 12.9 0.00 0.00 0.00 1 1016.1
20260831080603 26 35 4.8 14.5 0.00 0.00 0.00 1 1016.0
20260831080503 26 30 4.8 14.5 0.00 0.00 0.00 1 1016.0
20260831080403 26 25 4.8 14.5 0.00 0.00 0.00 1 1016.0
20260831080303 26 24 4.8 14.5 0.00 0.00 0.00 1 1016.0
20260831080203 26 23 6.4 14.5 0.00 0.00 0.00 1 1016.0
20260831080004 26 24 4.8 14.5 0.00 0.00 0.00 1 1016.0
20260831075903 26 24 4.8 14.5 0.00 0.00 0.00 1 1016.0
20260831075824 26 23 4.8 14.5 0.00 0.00 0.00 1 1016.0
20260831075724 26 23 4.8 14.5 0.00 0.00 0.00 1 1016.0
20260831075624 26 19 4.8 14.5 0.00 0.00 0.00 1 1016.0
20260831075503 26 17 4.8 14.5 0.00 0.00 0.00 1 1016.0
20260831075404 26 23 6.4 14.5 0.00 0.00 0.00 1 1016.0
20260831075306 26 20 4.8 14.5 0.00 0.00 0.00 1 1016.1
20260831075203 26 20 4.8 12.9 0.00 0.00 0.00 1 1016.0
20260831075124 26 22 4.8 12.9 0.00 0.00 0.00 1 1016.0
20260831075003 26 22 4.8 16.1 0.00 0.00 0.00 1 1016.0
20260831074903 26 23 4.8 16.1 0.00 0.00 0.00 1 1016.0
20260831074825 26 22 4.8 16.1 0.00 0.00 0.00 1 1016.0
20260831074724 26 20 4.8 16.1 0.00 0.00 0.00 1 1016.1
20260831074603 26 26 4.8 16.1 0.00 0.00 0.00 1 1016.1
20260831074524 26 29 4.8 16.1 0.00 0.00 0.00 1 1016.0
20260831074403 26 30 4.8 16.1 0.00 0.00 0.00 1 1016.1
20260831074324 26 32 4.8 16.1 0.00 0.00 0.00 1 1016.1
20260831074224 26 35 4.8 16.1 0.00 0.00 0.00 1 1016.1
20260831074103 26 35 4.8 12.9 0.00 0.00 0.00 1 1016.1
20260831074004 26 35 4.8 12.9 0.00 0.00 0.00 1 1016.1
20260831073903 26 34 4.8 12.9 0.00 0.00 0.00 1 1016.1
20260831073803 26 35 4.8 9.7 0.00 0.00 0.00 1 1016.1
20260831073703 26 36 4.8 9.7 0.00 0.00 0.00 1 1016.1
20260831073603 26 37 4.8 9.7 0.00 0.00 0.00 1 1016.1
20260831073504 26 40 3.2 9.7 0.00 0.00 0.00 1 1016.1
20260831073403 26 41 3.2 9.7 0.00 0.00 0.00 1 1016.1
20260831073303 26 42 3.2 9.7 0.00 0.00 0.00 1 1016.1
20260831073224 26 42 3.2 9.7 0.00 0.00 0.00 1 1016.1
20260831073103 26 42 3.2 9.7 0.00 0.00 0.00 1 1016.1
20260831073004 26 43 3.2 9.7 0.00 0.00 0.00 1 1016.1
20260831072903 26 43 3.2 8.0 0.00 0.00 0.00 1 1016.1
20260831072803 26 42 4.8 8.0 0.00 0.00 0.00 1 1016.1
20260831072703 26 41 4.8 8.0 0.00 0.00 0.00 1 1016.1
20260831072603 26 40 4.8 8.0 0.00 0.00 0.00 1 1016.1
20260831072524 26 39 4.8 8.0 0.00 0.00 0.00 1 1016.1
20260831072403 26 38 4.8 9.7 0.00 0.00 0.00 1 1016.1
20260831072306 26 37 4.8 9.7 0.00 0.00 0.00 1 1016.1
20260831072203 27 37 4.8 9.7 0.00 0.00 0.00 1 1016.1
20260831072103 27 37 4.8 9.7 0.00 0.00 0.00 1 1016.1
20260831072024 27 36 3.2 9.7 0.00 0.00 0.00 1 1016.1
20260831071904 27 36 3.2 9.7 0.00 0.00 0.00 1 1016.1
20260831071803 27 37 3.2 9.7 0.00 0.00 0.00 1 1016.1
20260831071703 27 38 3.2 9.7 0.00 0.00 0.00 1 1016.0
20260831071603 27 39 4.8 11.3 0.00 0.00 0.00 1 1016.0
20260831071503 27 40 4.8 11.3 0.00 0.00 0.00 1 1016.0
20260831071424 27 40 4.8 11.3 0.00 0.00 0.00 1 1016.0
20260831071324 27 39 4.8 11.3 0.00 0.00 0.00 1 1016.1
20260831071203 27 38 4.8 11.3 0.00 0.00 0.00 1 1016.0
20260831071103 27 37 4.8 11.3 0.00 0.00 0.00 1 1016.0
20260831071003 27 37 4.8 11.3 0.00 0.00 0.00 1 1016.0
20260831070903 27 35 4.8 11.3 0.00 0.00 0.00 1 1016.0
20260831070803 27 34 4.8 11.3 0.00 0.00 0.00 1 1016.0
20260831070703 27 32 4.8 11.3 0.00 0.00 0.00 1 1016.0
20260831070605 27 31 3.2 11.3 0.00 0.00 0.00 1 1016.0
20260831070503 27 30 3.2 11.3 0.00 0.00 0.00 1 1016.0
20260831070424 27 30 3.2 11.3 0.00 0.00 0.00 1 1016.1
20260831070324 27 29 3.2 11.3 0.00 0.00 0.00 1 1016.0
20260831070203 27 28 3.2 11.3 0.00 0.00 0.00 1 1016.0
20260831070124 27 27 3.2 8.0 0.00 0.00 0.00 1 1016.1
20260831070003 27 27 3.2 9.7 0.00 0.00 0.00 1 1016.1
20260831065903 27 28 3.2 9.7 0.00 0.00 0.00 1 1016.1
20260831065803 27 28 3.2 9.7 0.00 0.00 0.00 1 1016.1
20260831065703 27 28 3.2 9.7 0.00 0.00 0.00 1 1016.1
20260831065624 27 29 3.2 9.7 0.00 0.00 0.00 1 1016.1
20260831065503 27 29 3.2 9.7 0.00 0.00 0.00 1 1016.1
20260831065404 27 29 3.2 9.7 0.00 0.00 0.00 1 1016.1
20260831065324 27 29 3.2 9.7 0.00 0.00 0.00 1 1016.1
20260831065204 27 30 3.2 9.7 0.00 0.00 0.00 1 1016.2
20260831065124 27 30 3.2 9.7 0.00 0.00 0.00 1 1016.2
20260831065003 27 31 1.6 9.7 0.00 0.00 0.00 1 1016.2
20260831064924 27 31 1.6 8.0 0.00 0.00 0.00 1 1016.1
20260831064803 27 31 1.6 6.4 0.00 0.00 0.00 1 1016.2
20260831064703 27 31 1.6 6.4 0.00 0.00 0.00 1 1016.1
20260831064603 27 30 1.6 8.0 0.00 0.00 0.00 1 1016.2
20260831064503 27 30 1.6 8.0 0.00 0.00 0.00 1 1016.2
20260831064403 27 30 1.6 8.0 0.00 0.00 0.00 1 1016.2
20260831064303 27 30 1.6 8.0 0.00 0.00 0.00 1 1016.1
20260831064203 27 30 1.6 8.0 0.00 0.00 0.00 1 1016.2
20260831064103 27 30 3.2 8.0 0.00 0.00 0.00 1 1016.2
20260831064025 27 30 3.2 8.0 0.00 0.00 0.00 1 1016.2
20260831063903 27 29 3.2 8.0 0.00 0.00 0.00 1 1016.2
20260831063824 27 28 3.2 8.0 0.00 0.00 0.00 1 1016.3
20260831063703 27 26 3.2 8.0 0.00 0.00 0.00 1 1016.3
20260831063603 27 23 3.2 11.3 0.00 0.00 0.00 1 1016.3
20260831063525 27 23 3.2 11.3 0.00 0.00 0.00 1 1016.2
20260831063403 27 22 3.2 11.3 0.00 0.00 0.00 1 1016.2
20260831063303 27 22 3.2 11.3 0.00 0.00 0.00 1 1016.3
20260831063203 27 21 3.2 11.3 0.00 0.00 0.00 1 1016.3
20260831063104 27 19 3.2 11.3 0.00 0.00 0.00 1 1016.3
20260831063024 27 18 3.2 11.3 0.00 0.00 0.00 1 1016.2
20260831062903 28 17 4.8 11.3 0.00 0.00 0.00 1 1016.2
20260831062803 28 19 4.8 11.3 0.00 0.00 0.00 1 1016.3
20260831062703 28 23 4.8 11.3 0.00 0.00 0.00 1 1016.2
20260831062603 28 24 4.8 9.7 0.00 0.00 0.00 1 1016.2
20260831062503 28 24 4.8 9.7 0.00 0.00 0.00 1 1016.2
20260831062403 28 24 4.8 9.7 0.00 0.00 0.00 1 1016.2
20260831062305 28 24 4.8 9.7 0.00 0.00 0.00 1 1016.2
20260831062203 28 25 4.8 12.9 0.00 0.00 0.00 1 1016.2
20260831062103 28 28 4.8 12.9 0.00 0.00 0.00 1 1016.2
20260831062003 28 30 4.8 12.9 0.00 0.00 0.00 1 1016.2
20260831061903 28 32 4.8 12.9 0.00 0.00 0.00 1 1016.2
20260831061824 28 32 4.8 12.9 0.00 0.00 0.00 1 1016.2
20260831061703 28 31 4.8 12.9 0.00 0.00 0.00 1 1016.2
20260831061603 28 33 4.8 12.9 0.00 0.00 0.00 1 1016.2
20260831061504 28 32 4.8 12.9 0.00 0.00 0.00 1 1016.2
20260831061403 28 33 4.8 12.9 0.00 0.00 0.00 1 1016.2
20260831061303 28 33 4.8 12.9 0.00 0.00 0.00 1 1016.2
20260831061204 28 32 4.8 12.9 0.00 0.00 0.00 1 1016.2
20260831061103 28 31 4.8 12.9 0.00 0.00 0.00 1 1016.2
20260831061003 28 33 4.8 12.9 0.00 0.00 0.00 1 1016.1
20260831060924 28 34 4.8 12.9 0.00 0.00 0.00 1 1016.2
20260831060803 28 35 4.8 12.9 0.00 0.00 0.00 1 1016.2
20260831060703 28 32 4.8 12.9 0.00 0.00 0.00 1 1016.1
20260831060603 28 30 4.8 12.9 0.00 0.00 0.00 1 1016.1
20260831060503 28 31 4.8 12.9 0.00 0.00 0.00 1 1016.1
20260831060403 28 31 4.8 12.9 0.00 0.00 0.00 1 1016.1
20260831060303 28 32 4.8 12.9 0.00 0.00 0.00 1 1016.0
20260831060204 28 30 4.8 12.9 0.00 0.00 0.00 1 1016.0
20260831060103 28 26 4.8 12.9 0.00 0.00 0.00 1 1016.1
20260831060003 28 20 4.8 12.9 0.00 0.00 0.00 1 1016.1
20260831055903 28 13 4.8 12.9 0.00 0.00 0.00 1 1016.0
20260831055824 28 7 4.8 12.9 0.00 0.00 0.00 1 1016.0
20260831055703 28 4 4.8 12.9 0.00 0.00 0.00 1 1016.1
20260831055603 28 2 4.8 12.9 0.00 0.00 0.00 1 1016.1
20260831055503 28 357 4.8 11.3 0.00 0.00 0.00 1 1016.0
20260831055405 28 355 4.8 11.3 0.00 0.00 0.00 1 1016.1
20260831055306 28 354 4.8 11.3 0.00 0.00 0.00 1 1016.1
20260831055203 28 355 4.8 11.3 0.00 0.00 0.00 1 1016.1
20260831055103 28 359 4.8 11.3 0.00 0.00 0.00 1 1016.0
20260831055004 28 2 4.8 11.3 0.00 0.00 0.00 1 1016.0
20260831054903 28 7 4.8 11.3 0.00 0.00 0.00 1 1016.0
20260831054824 28 12 3.2 11.3 0.00 0.00 0.00 1 1016.0
20260831054703 28 16 4.8 11.3 0.00 0.00 0.00 1 1016.0
20260831054603 28 20 4.8 11.3 0.00 0.00 0.00 1 1016.0
20260831054503 28 24 4.8 9.7 0.00 0.00 0.00 1 1016.0
20260831054403 28 26 4.8 9.7 0.00 0.00 0.00 1 1016.0
20260831054324 28 29 4.8 9.7 0.00 0.00 0.00 1 1016.0
20260831054225 28 32 4.8 9.7 0.00 0.00 0.00 1 1016.0
20260831054103 28 37 4.8 9.7 0.00 0.00 0.00 1 1016.0
20260831054003 28 42 4.8 9.7 0.00 0.00 0.00 1 1016.0
20260831053903 28 47 4.8 9.7 0.00 0.00 0.00 1 1016.0
20260831053803 28 48 4.8 9.7 0.00 0.00 0.00 1 1016.0
20260831053724 28 45 4.8 11.3 0.00 0.00 0.00 1 1016.0
20260831053603 28 47 4.8 11.3 0.00 0.00 0.00 1 1016.0
20260831053503 28 45 4.8 11.3 0.00 0.00 0.00 1 1016.0
20260831053403 28 41 4.8 11.3 0.00 0.00 0.00 1 1016.0
20260831053324 28 34 4.8 11.3 0.00 0.00 0.00 1 1016.0
20260831053203 28 21 4.8 11.3 0.00 0.00 0.00 2 1016.0
20260831053103 28 18 4.8 11.3 0.00 0.00 0.00 3 1015.9
20260831053003 28 16 4.8 11.3 0.00 0.00 0.00 3 1015.9
20260831052903 28 16 4.8 12.9 0.00 0.00 0.00 4 1015.9
20260831052803 28 16 4.8 14.5 0.00 0.00 0.00 5 1015.9
20260831052703 28 19 4.8 14.5 0.00 0.00 0.00 6 1015.9
20260831052624 28 19 4.8 14.5 0.00 0.00 0.00 7 1015.9
20260831052504 28 22 4.8 14.5 0.00 0.00 0.00 7 1015.9
20260831052403 28 28 4.8 14.5 0.00 0.00 0.00 8 1015.9
20260831052306 28 32 4.8 14.5 0.00 0.00 0.00 9 1015.9
20260831052224 28 33 4.8 14.5 0.00 0.00 0.00 9 1015.8
20260831052103 29 36 4.8 14.5 0.00 0.00 0.00 11 1015.8
20260831052004 29 35 4.8 14.5 0.00 0.00 0.00 12 1015.8
20260831051903 29 32 4.8 14.5 0.00 0.00 0.00 13 1015.8
20260831051804 29 30 4.8 14.5 0.00 0.00 0.00 13 1015.9
20260831051703 29 27 4.8 14.5 0.00 0.00 0.00 14 1015.8
20260831051603 29 21 4.8 14.5 0.00 0.00 0.00 15 1015.8
20260831051503 29 16 6.4 14.5 0.00 0.00 0.00 16 1015.9
20260831051424 29 16 6.4 14.5 0.00 0.00 0.00 17 1015.8
20260831051304 29 10 6.4 14.5 0.00 0.00 0.00 17 1015.8
20260831051203 29 5 6.4 14.5 0.00 0.00 0.00 18 1015.8
20260831051103 29 2 6.4 14.5 0.00 0.00 0.00 18 1015.8
20260831051003 29 355 6.4 14.5 0.00 0.00 0.00 19 1015.8
20260831050924 29 352 6.4 14.5 0.00 0.00 0.00 19 1015.8
20260831050803 29 349 6.4 14.5 0.00 0.00 0.00 20 1015.8
20260831050703 29 354 6.4 14.5 0.00 0.00 0.00 20 1015.8
20260831050603 29 355 6.4 14.5 0.00 0.00 0.00 21 1015.8
20260831050503 29 355 6.4 14.5 0.00 0.00 0.00 22 1015.8
20260831050403 29 350 6.4 14.5 0.00 0.00 0.00 22 1015.8
20260831050303 29 350 6.4 14.5 0.00 0.00 0.00 23 1015.8
20260831050203 29 349 6.4 14.5 0.00 0.00 0.00 23 1015.8
20260831050103 29 347 6.4 16.1 0.00 0.00 0.00 24 1015.7
20260831050003 29 352 6.4 16.1 0.00 0.00 0.00 24 1015.7
20260831045903 29 360 6.4 16.1 0.00 0.00 0.00 25 1015.7
20260831045824 29 4 6.4 16.1 0.00 0.00 0.00 25 1015.7
20260831045704 29 4 6.4 16.1 0.00 0.00 0.00 26 1015.6
20260831045603 29 9 6.4 16.1 0.00 0.00 0.00 26 1015.6
20260831045503 29 14 6.4 16.1 0.00 0.00 0.00 26 1015.6
20260831045403 30 13 6.4 16.1 0.00 0.00 0.00 27 1015.6
20260831045306 30 21 6.4 16.1 0.00 0.00 0.00 27 1015.6
20260831045203 30 23 6.4 16.1 0.00 0.00 0.00 27 1015.5
20260831045103 30 30 6.4 16.1 0.00 0.00 0.00 28 1015.6
20260831045003 30 31 6.4 16.1 0.00 0.00 0.00 28 1015.5
20260831044903 30 30 6.4 12.9 0.00 0.00 0.00 28 1015.5
20260831044803 30 27 6.4 14.5 0.00 0.00 0.00 28 1015.5